Time,TemperatureF,DewpointF,PressureIn,WindDirection,WindDirectionDegrees,WindSpeedMPH,WindSpeedGustMPH,Humidity,HourlyPrecipIn,Conditions,Clouds,dailyrainin,SolarRadiationWatts/m^2,SoftwareType,DateUTC
2013-01-16 00:01:00,28.8,26.5,30.70,East,94,0.0,-999.0,91,0.00,,,0.01,0,Wunderground v.1.15,2013-01-16 08:01:00,
2013-01-16 00:06:00,28.8,26.5,30.70,East,94,0.0,-999.0,91,0.00,,,0.00,0,Wunderground v.1.15,2013-01-16 08:06:00,
2013-01-16 00:08:00,28.8,26.5,30.70,East,94,0.0,-999.0,91,0.00,,,0.00,0,Wunderground v.1.15,2013-01-16 08:08:00,
2013-01-16 00:09:00,28.8,26.5,30.70,East,94,0.0,-999.0,91,0.00,,,0.00,0,Wunderground v.1.15,2013-01-16 08:09:00,
2013-01-16 00:10:00,28.8,26.5,30.70,East,94,0.0,-999.0,91,0.00,,,0.00,0,Wunderground v.1.15,2013-01-16 08:10:00,
2013-01-16 00:12:00,29.0,26.7,30.70,East,94,0.0,-999.0,91,0.00,,,0.00,0,Wunderground v.1.15,2013-01-16 08:12:00,
2013-01-16 00:14:00,28.8,26.5,30.70,East,94,0.0,-999.0,91,0.00,,,0.00,0,Wunderground v.1.15,2013-01-16 08:14:00,
2013-01-16 00:17:00,28.8,26.5,30.70,East,94,0.0,-999.0,91,0.00,,,0.00,0,Wunderground v.1.15,2013-01-16 08:17:00,
2013-01-16 00:18:00,28.8,26.5,30.70,East,94,0.0,-999.0,91,0.00,,,0.00,0,Wunderground v.1.15,2013-01-16 08:18:00,
2013-01-16 00:20:00,28.8,26.5,30.70,East,94,0.0,-999.0,91,0.00,,,0.00,0,Wunderground v.1.15,2013-01-16 08:20:00,
2013-01-16 00:22:00,28.8,26.5,30.70,East,94,0.0,-999.0,91,0.00,,,0.00,0,Wunderground v.1.15,2013-01-16 08:22:00,
2013-01-16 00:23:00,28.8,26.5,30.70,East,94,0.0,-999.0,91,0.00,,,0.00,0,Wunderground v.1.15,2013-01-16 08:23:00,
2013-01-16 00:27:00,28.8,26.5,30.70,East,94,0.0,-999.0,91,0.00,,,0.00,0,Wunderground v.1.15,2013-01-16 08:27:00,
2013-01-16 00:28:00,28.8,26.5,30.70,East,88,0.0,-999.0,91,0.00,,,0.00,0,Wunderground v.1.15,2013-01-16 08:28:00,
2013-01-16 00:29:00,28.8,26.5,30.70,East,94,0.0,-999.0,91,0.00,,,0.00,0,Wunderground v.1.15,2013-01-16 08:29:00,
2013-01-16 00:30:00,28.8,26.5,30.70,East,94,0.0,-999.0,91,0.00,,,0.00,0,Wunderground v.1.15,2013-01-16 08:30:00,
2013-01-16 00:35:00,28.7,26.4,30.70,East,94,0.0,-999.0,91,0.00,,,0.00,0,Wunderground v.1.15,2013-01-16 08:35:00,
2013-01-16 00:36:00,28.7,26.4,30.70,East,94,0.0,-999.0,91,0.00,,,0.00,0,Wunderground v.1.15,2013-01-16 08:36:00,
2013-01-16 00:38:00,28.7,26.4,30.70,East,94,0.0,-999.0,91,0.00,,,0.00,0,Wunderground v.1.15,2013-01-16 08:38:00,
2013-01-16 00:40:00,28.7,26.4,30.70,East,94,0.0,-999.0,91,0.00,,,0.00,0,Wunderground v.1.15,2013-01-16 08:40:00,
2013-01-16 00:41:00,28.7,26.4,30.70,East,94,0.0,-999.0,91,0.00,,,0.00,0,Wunderground v.1.15,2013-01-16 08:41:00,
2013-01-16 00:46:00,28.5,26.2,30.70,East,94,0.0,-999.0,91,0.00,,,0.00,0,Wunderground v.1.15,2013-01-16 08:46:00,
2013-01-16 00:47:00,28.5,26.2,30.70,East,94,0.0,-999.0,91,0.00,,,0.00,0,Wunderground v.1.15,2013-01-16 08:47:00,
2013-01-16 00:48:00,28.5,26.2,30.70,East,94,0.0,-999.0,91,0.00,,,0.00,0,Wunderground v.1.15,2013-01-16 08:48:00,
2013-01-16 00:49:00,28.5,26.2,30.70,East,94,0.0,-999.0,91,0.00,,,0.00,0,Wunderground v.1.15,2013-01-16 08:49:00,
2013-01-16 00:53:00,28.5,26.2,30.70,East,94,0.0,-999.0,91,0.00,,,0.00,0,Wunderground v.1.15,2013-01-16 08:53:00,
2013-01-16 00:54:00,28.5,26.2,30.70,East,94,0.0,-999.0,91,0.00,,,0.00,0,Wunderground v.1.15,2013-01-16 08:54:00,
2013-01-16 00:56:00,28.4,26.1,30.70,East,94,0.0,-999.0,91,0.00,,,0.00,0,Wunderground v.1.15,2013-01-16 08:56:00,
2013-01-16 00:57:00,28.4,26.1,30.70,East,94,0.0,-999.0,91,0.00,,,0.00,0,Wunderground v.1.15,2013-01-16 08:57:00,
2013-01-16 00:59:00,28.4,26.1,30.70,East,94,0.0,-999.0,91,0.00,,,0.00,0,Wunderground v.1.15,2013-01-16 08:59:00,
2013-01-16 01:01:00,28.4,26.1,30.70,East,94,0.0,-999.0,91,0.00,,,0.00,0,Wunderground v.1.15,2013-01-16 09:01:00,
2013-01-16 01:02:00,28.4,26.1,30.70,East,94,0.0,-999.0,91,0.00,,,0.00,0,Wunderground v.1.15,2013-01-16 09:02:00,
2013-01-16 01:04:00,28.4,26.1,30.70,East,94,0.0,-999.0,91,0.00,,,0.00,0,Wunderground v.1.15,2013-01-16 09:04:00,
2013-01-16 01:09:00,28.4,26.1,30.70,East,94,0.0,-999.0,91,0.00,,,0.00,0,Wunderground v.1.15,2013-01-16 09:09:00,
2013-01-16 01:10:00,28.2,25.9,30.70,East,94,0.0,-999.0,91,0.00,,,0.00,0,Wunderground v.1.15,2013-01-16 09:10:00,
2013-01-16 01:14:00,28.2,25.9,30.70,East,94,0.0,-999.0,91,0.00,,,0.00,0,Wunderground v.1.15,2013-01-16 09:14:00,
2013-01-16 01:16:00,28.2,25.9,30.69,East,94,0.0,-999.0,91,0.00,,,0.00,0,Wunderground v.1.15,2013-01-16 09:16:00,
2013-01-16 01:17:00,28.2,25.9,30.69,East,94,0.0,-999.0,91,0.00,,,0.00,0,Wunderground v.1.15,2013-01-16 09:17:00,
2013-01-16 01:19:00,28.2,25.9,30.69,East,94,0.0,-999.0,91,0.00,,,0.00,0,Wunderground v.1.15,2013-01-16 09:19:00,
2013-01-16 01:21:00,28.4,26.1,30.69,East,94,0.0,-999.0,91,0.00,,,0.00,0,Wunderground v.1.15,2013-01-16 09:21:00,
2013-01-16 01:23:00,28.4,26.1,30.69,East,94,0.0,-999.0,91,0.00,,,0.00,0,Wunderground v.1.15,2013-01-16 09:23:00,
2013-01-16 01:24:00,28.4,26.1,30.69,East,94,0.0,-999.0,91,0.00,,,0.00,0,Wunderground v.1.15,2013-01-16 09:24:00,
2013-01-16 01:25:00,28.4,26.1,30.69,East,94,0.0,-999.0,91,0.00,,,0.00,0,Wunderground v.1.15,2013-01-16 09:25:00,
2013-01-16 01:28:00,28.4,26.1,30.69,East,94,0.0,-999.0,91,0.00,,,0.00,0,Wunderground v.1.15,2013-01-16 09:28:00,
2013-01-16 01:30:00,28.4,26.1,30.69,East,94,0.0,-999.0,91,0.00,,,0.00,0,Wunderground v.1.15,2013-01-16 09:30:00,
2013-01-16 01:33:00,28.4,26.1,30.69,East,94,0.0,-999.0,91,0.00,,,0.00,0,Wunderground v.1.15,2013-01-16 09:33:00,
2013-01-16 01:34:00,28.2,25.9,30.69,East,94,0.0,-999.0,91,0.00,,,0.00,0,Wunderground v.1.15,2013-01-16 09:34:00,
2013-01-16 01:35:00,28.2,25.9,30.69,East,94,0.0,-999.0,91,0.00,,,0.00,0,Wunderground v.1.15,2013-01-16 09:35:00,
2013-01-16 01:37:00,28.2,25.9,30.69,East,94,0.0,-999.0,91,0.00,,,0.00,0,Wunderground v.1.15,2013-01-16 09:37:00,
2013-01-16 01:41:00,28.2,25.9,30.69,East,94,0.0,-999.0,91,0.00,,,0.00,0,Wunderground v.1.15,2013-01-16 09:41:00,
2013-01-16 01:42:00,28.1,25.8,30.69,East,94,0.0,-999.0,91,0.00,,,0.00,0,Wunderground v.1.15,2013-01-16 09:42:00,
2013-01-16 01:43:00,28.1,25.8,30.69,East,94,0.0,-999.0,91,0.00,,,0.00,0,Wunderground v.1.15,2013-01-16 09:43:00,
2013-01-16 01:45:00,28.1,25.8,30.69,East,94,0.0,-999.0,91,0.00,,,0.00,0,Wunderground v.1.15,2013-01-16 09:45:00,
2013-01-16 01:47:00,28.1,25.8,30.69,East,94,0.0,-999.0,91,0.00,,,0.00,0,Wunderground v.1.15,2013-01-16 09:47:00,
2013-01-16 01:48:00,28.1,25.8,30.69,East,94,0.0,-999.0,91,0.00,,,0.00,0,Wunderground v.1.15,2013-01-16 09:48:00,
2013-01-16 01:51:00,27.9,25.6,30.69,East,94,0.0,-999.0,91,0.00,,,0.00,0,Wunderground v.1.15,2013-01-16 09:51:00,
2013-01-16 01:53:00,27.9,25.6,30.69,East,94,0.0,-999.0,91,0.00,,,0.00,0,Wunderground v.1.15,2013-01-16 09:53:00,
2013-01-16 01:54:00,27.9,25.6,30.69,East,94,0.0,-999.0,91,0.00,,,0.00,0,Wunderground v.1.15,2013-01-16 09:54:00,
2013-01-16 01:55:00,27.9,25.6,30.69,East,94,0.0,-999.0,91,0.00,,,0.00,0,Wunderground v.1.15,2013-01-16 09:55:00,
2013-01-16 01:59:00,27.9,25.6,30.69,East,94,0.0,-999.0,91,0.00,,,0.00,0,Wunderground v.1.15,2013-01-16 09:59:00,
2013-01-16 02:00:00,27.9,25.6,30.69,East,94,0.0,-999.0,91,0.00,,,0.00,0,Wunderground v.1.15,2013-01-16 10:00:00,
2013-01-16 02:04:00,27.9,25.6,30.70,East,94,0.0,-999.0,91,0.00,,,0.00,0,Wunderground v.1.15,2013-01-16 10:04:00,
2013-01-16 02:05:00,27.9,25.6,30.70,East,94,0.0,-999.0,91,0.00,,,0.00,0,Wunderground v.1.15,2013-01-16 10:05:00,
2013-01-16 02:06:00,27.9,25.6,30.70,East,94,0.0,-999.0,91,0.00,,,0.00,0,Wunderground v.1.15,2013-01-16 10:06:00,
2013-01-16 02:10:00,27.9,25.6,30.70,East,94,0.0,-999.0,91,0.00,,,0.00,0,Wunderground v.1.15,2013-01-16 10:10:00,
2013-01-16 02:11:00,27.8,25.5,30.70,East,94,0.0,-999.0,91,0.00,,,0.00,0,Wunderground v.1.15,2013-01-16 10:11:00,
2013-01-16 02:15:00,27.8,25.5,30.70,East,94,0.0,-999.0,91,0.00,,,0.00,0,Wunderground v.1.15,2013-01-16 10:15:00,
2013-01-16 02:16:00,27.8,25.5,30.70,East,94,0.0,-999.0,91,0.00,,,0.00,0,Wunderground v.1.15,2013-01-16 10:16:00,
2013-01-16 02:17:00,27.8,25.5,30.70,East,94,0.0,-999.0,91,0.00,,,0.00,0,Wunderground v.1.15,2013-01-16 10:17:00,
2013-01-16 02:20:00,27.6,25.3,30.70,East,94,0.0,-999.0,91,0.00,,,0.00,0,Wunderground v.1.15,2013-01-16 10:20:00,
2013-01-16 02:21:00,27.6,25.3,30.70,East,94,0.0,-999.0,91,0.00,,,0.00,0,Wunderground v.1.15,2013-01-16 10:21:00,
2013-01-16 02:22:00,27.6,25.3,30.70,East,94,0.0,-999.0,91,0.00,,,0.00,0,Wunderground v.1.15,2013-01-16 10:22:00,
2013-01-16 02:25:00,27.5,25.2,30.70,East,94,0.0,-999.0,91,0.00,,,0.00,0,Wunderground v.1.15,2013-01-16 10:25:00,
2013-01-16 02:26:00,27.5,25.2,30.70,East,94,0.0,-999.0,91,0.00,,,0.00,0,Wunderground v.1.15,2013-01-16 10:26:00,
2013-01-16 02:27:00,27.5,25.2,30.70,East,94,0.0,-999.0,91,0.00,,,0.00,0,Wunderground v.1.15,2013-01-16 10:27:00,
2013-01-16 02:30:00,27.5,25.2,30.70,East,94,0.0,-999.0,91,0.00,,,0.00,0,Wunderground v.1.15,2013-01-16 10:30:00,
2013-01-16 02:31:00,27.5,25.2,30.70,East,94,0.0,-999.0,91,0.00,,,0.00,0,Wunderground v.1.15,2013-01-16 10:31:00,
2013-01-16 02:33:00,27.5,25.2,30.70,East,94,0.0,-999.0,91,0.00,,,0.00,0,Wunderground v.1.15,2013-01-16 10:33:00,
2013-01-16 02:36:00,27.5,25.2,30.70,East,94,0.0,-999.0,91,0.00,,,0.00,0,Wunderground v.1.15,2013-01-16 10:36:00,
2013-01-16 02:37:00,27.5,25.2,30.70,East,94,0.0,-999.0,91,0.00,,,0.00,0,Wunderground v.1.15,2013-01-16 10:37:00,
2013-01-16 02:38:00,27.3,25.0,30.70,East,94,0.0,-999.0,91,0.00,,,0.00,0,Wunderground v.1.15,2013-01-16 10:38:00,
2013-01-16 02:41:00,27.3,25.0,30.70,East,94,0.0,-999.0,91,0.00,,,0.00,0,Wunderground v.1.15,2013-01-16 10:41:00,
2013-01-16 02:42:00,27.3,25.0,30.70,East,94,0.0,-999.0,91,0.00,,,0.00,0,Wunderground v.1.15,2013-01-16 10:42:00,
2013-01-16 02:43:00,27.3,25.0,30.70,East,94,0.0,-999.0,91,0.00,,,0.00,0,Wunderground v.1.15,2013-01-16 10:43:00,
2013-01-16 02:46:00,27.3,25.0,30.70,East,94,0.0,-999.0,91,0.00,,,0.00,0,Wunderground v.1.15,2013-01-16 10:46:00,
2013-01-16 02:47:00,27.3,25.0,30.70,East,94,0.0,-999.0,91,0.00,,,0.00,0,Wunderground v.1.15,2013-01-16 10:47:00,
2013-01-16 02:49:00,27.3,25.0,30.70,East,94,0.0,-999.0,91,0.00,,,0.00,0,Wunderground v.1.15,2013-01-16 10:49:00,
2013-01-16 02:51:00,27.3,25.0,30.70,East,94,0.0,-999.0,91,0.00,,,0.00,0,Wunderground v.1.15,2013-01-16 10:51:00,
2013-01-16 02:52:00,27.3,25.0,30.70,East,94,0.0,-999.0,91,0.00,,,0.00,0,Wunderground v.1.15,2013-01-16 10:52:00,
2013-01-16 02:54:00,27.3,25.0,30.70,East,94,0.0,-999.0,91,0.00,,,0.00,0,Wunderground v.1.15,2013-01-16 10:54:00,
2013-01-16 02:56:00,27.3,25.0,30.70,East,94,0.0,-999.0,91,0.00,,,0.00,0,Wunderground v.1.15,2013-01-16 10:56:00,
2013-01-16 02:57:00,27.3,25.0,30.70,East,94,0.0,-999.0,91,0.00,,,0.00,0,Wunderground v.1.15,2013-01-16 10:57:00,
2013-01-16 02:58:00,27.3,25.0,30.70,East,94,0.0,-999.0,91,0.00,,,0.00,0,Wunderground v.1.15,2013-01-16 10:58:00,
2013-01-16 03:00:00,27.3,25.0,30.70,East,94,0.0,-999.0,91,0.00,,,0.00,0,Wunderground v.1.15,2013-01-16 11:00:00,
2013-01-16 03:01:00,27.3,25.0,30.70,East,94,0.0,-999.0,91,0.00,,,0.00,0,Wunderground v.1.15,2013-01-16 11:01:00,
2013-01-16 03:02:00,27.3,25.0,30.70,East,94,0.0,-999.0,91,0.00,,,0.00,0,Wunderground v.1.15,2013-01-16 11:02:00,
2013-01-16 03:03:00,27.3,25.0,30.70,East,94,0.0,-999.0,91,0.00,,,0.00,0,Wunderground v.1.15,2013-01-16 11:03:00,
2013-01-16 03:05:00,27.3,25.0,30.70,East,94,0.0,-999.0,91,0.00,,,0.00,0,Wunderground v.1.15,2013-01-16 11:05:00,
2013-01-16 03:06:00,27.3,25.0,30.70,East,94,0.0,-999.0,91,0.00,,,0.00,0,Wunderground v.1.15,2013-01-16 11:06:00,
2013-01-16 03:07:00,27.3,25.0,30.70,East,94,0.0,-999.0,91,0.00,,,0.00,0,Wunderground v.1.15,2013-01-16 11:07:00,
2013-01-16 03:08:00,27.2,24.9,30.70,East,94,0.0,-999.0,91,0.00,,,0.00,0,Wunderground v.1.15,2013-01-16 11:08:00,
2013-01-16 03:10:00,27.2,24.9,30.70,East,94,0.0,-999.0,91,0.00,,,0.00,0,Wunderground v.1.15,2013-01-16 11:10:00,
2013-01-16 03:11:00,27.2,24.9,30.70,East,94,0.0,-999.0,91,0.00,,,0.00,0,Wunderground v.1.15,2013-01-16 11:11:00,
2013-01-16 03:12:00,27.2,24.9,30.70,East,94,0.0,-999.0,91,0.00,,,0.00,0,Wunderground v.1.15,2013-01-16 11:12:00,
2013-01-16 03:13:00,27.2,24.9,30.70,East,94,0.0,-999.0,91,0.00,,,0.00,0,Wunderground v.1.15,2013-01-16 11:13:00,
2013-01-16 03:15:00,27.2,24.9,30.70,East,94,0.0,-999.0,91,0.00,,,0.00,0,Wunderground v.1.15,2013-01-16 11:15:00,
2013-01-16 03:16:00,27.2,24.9,30.70,East,94,0.0,-999.0,91,0.00,,,0.00,0,Wunderground v.1.15,2013-01-16 11:16:00,
2013-01-16 03:17:00,27.2,24.9,30.70,East,94,0.0,-999.0,91,0.00,,,0.00,0,Wunderground v.1.15,2013-01-16 11:17:00,
2013-01-16 03:19:00,27.2,24.9,30.70,East,94,0.0,-999.0,91,0.00,,,0.00,0,Wunderground v.1.15,2013-01-16 11:19:00,
2013-01-16 03:21:00,27.0,24.7,30.70,East,94,0.0,-999.0,91,0.00,,,0.00,0,Wunderground v.1.15,2013-01-16 11:21:00,
2013-01-16 03:23:00,27.0,24.7,30.70,East,94,0.0,-999.0,91,0.00,,,0.00,0,Wunderground v.1.15,2013-01-16 11:23:00,
2013-01-16 03:24:00,27.0,24.7,30.70,East,94,0.0,-999.0,91,0.00,,,0.00,0,Wunderground v.1.15,2013-01-16 11:24:00,
2013-01-16 03:26:00,26.9,24.6,30.70,East,94,0.0,-999.0,91,0.00,,,0.00,0,Wunderground v.1.15,2013-01-16 11:26:00,
2013-01-16 03:29:00,26.9,24.6,30.70,East,94,0.0,-999.0,91,0.00,,,0.00,0,Wunderground v.1.15,2013-01-16 11:29:00,
2013-01-16 03:31:00,26.9,24.6,30.69,East,94,0.0,-999.0,91,0.00,,,0.00,0,Wunderground v.1.15,2013-01-16 11:31:00,
2013-01-16 03:32:00,26.9,24.6,30.69,East,94,0.0,-999.0,91,0.00,,,0.00,0,Wunderground v.1.15,2013-01-16 11:32:00,
2013-01-16 03:34:00,26.9,24.6,30.69,East,94,0.0,-999.0,91,0.00,,,0.00,0,Wunderground v.1.15,2013-01-16 11:34:00,
2013-01-16 03:36:00,26.9,24.6,30.69,East,94,0.0,-999.0,91,0.00,,,0.00,0,Wunderground v.1.15,2013-01-16 11:36:00,
2013-01-16 03:37:00,26.9,24.6,30.69,East,94,0.0,-999.0,91,0.00,,,0.00,0,Wunderground v.1.15,2013-01-16 11:37:00,
2013-01-16 03:39:00,26.7,24.4,30.69,East,94,0.0,-999.0,91,0.00,,,0.00,0,Wunderground v.1.15,2013-01-16 11:39:00,
2013-01-16 03:40:00,26.7,24.4,30.69,East,94,0.0,-999.0,91,0.00,,,0.00,0,Wunderground v.1.15,2013-01-16 11:40:00,
2013-01-16 03:41:00,26.7,24.4,30.69,East,94,0.0,-999.0,91,0.00,,,0.00,0,Wunderground v.1.15,2013-01-16 11:41:00,
2013-01-16 03:42:00,26.7,24.4,30.69,East,94,0.0,-999.0,91,0.00,,,0.00,0,Wunderground v.1.15,2013-01-16 11:42:00,
2013-01-16 03:44:00,26.7,24.4,30.69,East,94,0.0,-999.0,91,0.00,,,0.00,0,Wunderground v.1.15,2013-01-16 11:44:00,
2013-01-16 03:45:00,26.7,24.4,30.69,East,94,0.0,-999.0,91,0.00,,,0.00,0,Wunderground v.1.15,2013-01-16 11:45:00,
2013-01-16 03:46:00,26.7,24.4,30.69,East,94,0.0,-999.0,91,0.00,,,0.00,0,Wunderground v.1.15,2013-01-16 11:46:00,
2013-01-16 03:47:00,26.9,24.6,30.69,East,94,0.0,-999.0,91,0.00,,,0.00,0,Wunderground v.1.15,2013-01-16 11:47:00,
2013-01-16 03:50:00,26.9,24.6,30.69,East,94,0.0,-999.0,91,0.00,,,0.00,0,Wunderground v.1.15,2013-01-16 11:50:00,
2013-01-16 03:52:00,26.9,24.6,30.69,East,94,0.0,-999.0,91,0.00,,,0.00,0,Wunderground v.1.15,2013-01-16 11:52:00,
2013-01-16 03:53:00,26.9,24.6,30.69,East,94,0.0,-999.0,91,0.00,,,0.00,0,Wunderground v.1.15,2013-01-16 11:53:00,
2013-01-16 03:55:00,26.9,24.6,30.69,East,94,0.0,-999.0,91,0.00,,,0.00,0,Wunderground v.1.15,2013-01-16 11:55:00,
2013-01-16 03:56:00,26.9,24.6,30.69,East,94,0.0,-999.0,91,0.00,,,0.00,0,Wunderground v.1.15,2013-01-16 11:56:00,
2013-01-16 03:57:00,26.9,24.6,30.69,East,94,0.0,-999.0,91,0.00,,,0.00,0,Wunderground v.1.15,2013-01-16 11:57:00,
2013-01-16 03:58:00,26.9,24.6,30.69,East,94,0.0,-999.0,91,0.00,,,0.00,0,Wunderground v.1.15,2013-01-16 11:58:00,
2013-01-16 04:01:00,26.9,24.6,30.69,East,94,0.0,-999.0,91,0.00,,,0.00,0,Wunderground v.1.15,2013-01-16 12:01:00,
2013-01-16 04:02:00,26.9,24.6,30.69,East,94,0.0,-999.0,91,0.00,,,0.00,0,Wunderground v.1.15,2013-01-16 12:02:00,
2013-01-16 04:03:00,26.7,24.4,30.69,East,94,0.0,-999.0,91,0.00,,,0.00,0,Wunderground v.1.15,2013-01-16 12:03:00,
2013-01-16 04:06:00,26.7,24.4,30.69,East,94,0.0,-999.0,91,0.00,,,0.00,0,Wunderground v.1.15,2013-01-16 12:06:00,
2013-01-16 04:07:00,26.6,24.3,30.69,East,94,0.0,-999.0,91,0.00,,,0.00,0,Wunderground v.1.15,2013-01-16 12:07:00,
2013-01-16 04:08:00,26.6,24.3,30.69,East,94,0.0,-999.0,91,0.00,,,0.00,0,Wunderground v.1.15,2013-01-16 12:08:00,
2013-01-16 04:11:00,26.6,24.3,30.69,East,94,0.0,-999.0,91,0.00,,,0.00,0,Wunderground v.1.15,2013-01-16 12:11:00,
2013-01-16 04:12:00,26.6,24.3,30.69,East,94,0.0,-999.0,91,0.00,,,0.00,0,Wunderground v.1.15,2013-01-16 12:12:00,
2013-01-16 04:13:00,26.6,24.3,30.69,East,94,0.0,-999.0,91,0.00,,,0.00,0,Wunderground v.1.15,2013-01-16 12:13:00,
2013-01-16 04:16:00,26.6,24.3,30.69,East,94,0.0,-999.0,91,0.00,,,0.00,0,Wunderground v.1.15,2013-01-16 12:16:00,
2013-01-16 04:17:00,26.6,24.3,30.69,East,94,0.0,-999.0,91,0.00,,,0.00,0,Wunderground v.1.15,2013-01-16 12:17:00,
2013-01-16 04:18:00,26.6,24.3,30.69,East,94,0.0,-999.0,91,0.00,,,0.00,0,Wunderground v.1.15,2013-01-16 12:18:00,
2013-01-16 04:21:00,26.6,24.3,30.69,East,94,0.0,-999.0,91,0.00,,,0.00,0,Wunderground v.1.15,2013-01-16 12:21:00,
2013-01-16 04:22:00,26.6,24.3,30.69,East,94,0.0,-999.0,91,0.00,,,0.00,0,Wunderground v.1.15,2013-01-16 12:22:00,
2013-01-16 04:23:00,26.6,24.3,30.69,East,94,0.0,-999.0,91,0.00,,,0.00,0,Wunderground v.1.15,2013-01-16 12:23:00,
2013-01-16 04:27:00,26.6,24.3,30.69,East,94,0.0,-999.0,91,0.00,,,0.00,0,Wunderground v.1.15,2013-01-16 12:27:00,
2013-01-16 04:29:00,26.6,24.3,30.69,East,94,0.0,-999.0,91,0.00,,,0.00,0,Wunderground v.1.15,2013-01-16 12:29:00,
2013-01-16 04:32:00,26.6,24.3,30.69,East,94,0.0,-999.0,91,0.00,,,0.00,0,Wunderground v.1.15,2013-01-16 12:32:00,
2013-01-16 04:33:00,26.6,24.3,30.69,East,94,0.0,-999.0,91,0.00,,,0.00,0,Wunderground v.1.15,2013-01-16 12:33:00,
2013-01-16 04:34:00,26.6,24.3,30.69,East,94,0.0,-999.0,91,0.00,,,0.00,0,Wunderground v.1.15,2013-01-16 12:34:00,
2013-01-16 04:37:00,26.6,24.3,30.69,East,94,0.0,-999.0,91,0.00,,,0.00,0,Wunderground v.1.15,2013-01-16 12:37:00,
2013-01-16 04:38:00,26.6,24.3,30.69,East,94,0.0,-999.0,91,0.00,,,0.00,0,Wunderground v.1.15,2013-01-16 12:38:00,
2013-01-16 04:39:00,26.6,24.3,30.69,East,94,0.0,-999.0,91,0.00,,,0.00,0,Wunderground v.1.15,2013-01-16 12:39:00,
2013-01-16 04:40:00,26.6,24.3,30.69,East,94,0.0,-999.0,91,0.00,,,0.00,0,Wunderground v.1.15,2013-01-16 12:40:00,
2013-01-16 04:42:00,26.4,24.1,30.69,East,94,0.0,-999.0,91,0.00,,,0.00,0,Wunderground v.1.15,2013-01-16 12:42:00,
2013-01-16 04:43:00,26.4,24.1,30.69,East,94,0.0,-999.0,91,0.00,,,0.00,0,Wunderground v.1.15,2013-01-16 12:43:00,
2013-01-16 04:44:00,26.4,24.1,30.69,East,94,0.0,-999.0,91,0.00,,,0.00,0,Wunderground v.1.15,2013-01-16 12:44:00,
2013-01-16 04:45:00,26.4,24.1,30.68,East,94,0.0,-999.0,91,0.00,,,0.00,0,Wunderground v.1.15,2013-01-16 12:45:00,
2013-01-16 04:47:00,26.4,24.1,30.68,East,94,0.0,-999.0,91,0.00,,,0.00,0,Wunderground v.1.15,2013-01-16 12:47:00,
2013-01-16 04:48:00,26.4,24.1,30.68,East,94,0.0,-999.0,91,0.00,,,0.00,0,Wunderground v.1.15,2013-01-16 12:48:00,
2013-01-16 04:49:00,26.4,24.1,30.68,East,94,0.0,-999.0,91,0.00,,,0.00,0,Wunderground v.1.15,2013-01-16 12:49:00,
2013-01-16 04:50:00,26.4,24.1,30.68,East,94,0.0,-999.0,91,0.00,,,0.00,0,Wunderground v.1.15,2013-01-16 12:50:00,
2013-01-16 04:52:00,26.4,24.1,30.68,East,94,0.0,-999.0,91,0.00,,,0.00,0,Wunderground v.1.15,2013-01-16 12:52:00,
2013-01-16 04:53:00,26.4,24.1,30.68,East,94,0.0,-999.0,91,0.00,,,0.00,0,Wunderground v.1.15,2013-01-16 12:53:00,
2013-01-16 04:54:00,26.4,24.1,30.68,East,94,0.0,-999.0,91,0.00,,,0.00,0,Wunderground v.1.15,2013-01-16 12:54:00,
2013-01-16 04:56:00,26.4,24.1,30.68,East,94,0.0,-999.0,91,0.00,,,0.00,0,Wunderground v.1.15,2013-01-16 12:56:00,
2013-01-16 04:57:00,26.4,24.1,30.68,East,94,0.0,-999.0,91,0.00,,,0.00,0,Wunderground v.1.15,2013-01-16 12:57:00,
2013-01-16 04:58:00,26.4,24.1,30.68,East,94,0.0,-999.0,91,0.00,,,0.00,0,Wunderground v.1.15,2013-01-16 12:58:00,
2013-01-16 05:00:00,26.4,24.1,30.68,East,94,0.0,-999.0,91,0.00,,,0.00,0,Wunderground v.1.15,2013-01-16 13:00:00,
2013-01-16 05:01:00,26.4,24.1,30.68,East,94,0.0,-999.0,91,0.00,,,0.00,0,Wunderground v.1.15,2013-01-16 13:01:00,
2013-01-16 05:03:00,26.3,24.0,30.68,East,94,0.0,-999.0,91,0.00,,,0.00,0,Wunderground v.1.15,2013-01-16 13:03:00,
2013-01-16 05:04:00,26.3,24.0,30.68,East,94,0.0,-999.0,91,0.00,,,0.00,0,Wunderground v.1.15,2013-01-16 13:04:00,
2013-01-16 05:05:00,26.3,24.0,30.68,East,94,0.0,-999.0,91,0.00,,,0.00,0,Wunderground v.1.15,2013-01-16 13:05:00,
2013-01-16 05:06:00,26.3,24.0,30.68,East,94,0.0,-999.0,91,0.00,,,0.00,0,Wunderground v.1.15,2013-01-16 13:06:00,
2013-01-16 05:08:00,26.3,24.0,30.68,East,94,0.0,-999.0,91,0.00,,,0.00,0,Wunderground v.1.15,2013-01-16 13:08:00,
2013-01-16 05:09:00,26.3,24.0,30.68,East,94,0.0,-999.0,91,0.00,,,0.00,0,Wunderground v.1.15,2013-01-16 13:09:00,
2013-01-16 05:10:00,26.3,24.0,30.68,East,94,0.0,-999.0,91,0.00,,,0.00,0,Wunderground v.1.15,2013-01-16 13:10:00,
2013-01-16 05:11:00,26.3,24.0,30.68,East,94,0.0,-999.0,91,0.00,,,0.00,0,Wunderground v.1.15,2013-01-16 13:11:00,
2013-01-16 05:13:00,26.3,24.0,30.68,East,94,0.0,-999.0,91,0.00,,,0.00,0,Wunderground v.1.15,2013-01-16 13:13:00,
2013-01-16 05:14:00,26.3,24.0,30.68,East,94,0.0,-999.0,91,0.00,,,0.00,0,Wunderground v.1.15,2013-01-16 13:14:00,
2013-01-16 05:15:00,26.3,24.0,30.67,East,94,0.0,-999.0,91,0.00,,,0.00,0,Wunderground v.1.15,2013-01-16 13:15:00,
2013-01-16 05:16:00,26.3,24.0,30.67,East,94,0.0,-999.0,91,0.00,,,0.00,0,Wunderground v.1.15,2013-01-16 13:16:00,
2013-01-16 05:19:00,26.3,24.0,30.67,East,94,0.0,-999.0,91,0.00,,,0.00,0,Wunderground v.1.15,2013-01-16 13:19:00,
2013-01-16 05:20:00,26.3,24.0,30.67,East,94,0.0,-999.0,91,0.00,,,0.00,0,Wunderground v.1.15,2013-01-16 13:20:00,
2013-01-16 05:21:00,26.3,24.0,30.67,East,94,0.0,-999.0,91,0.00,,,0.00,0,Wunderground v.1.15,2013-01-16 13:21:00,
2013-01-16 05:24:00,26.3,24.0,30.67,East,94,0.0,-999.0,91,0.00,,,0.00,0,Wunderground v.1.15,2013-01-16 13:24:00,
2013-01-16 05:25:00,26.3,24.0,30.67,East,94,0.0,-999.0,91,0.00,,,0.00,0,Wunderground v.1.15,2013-01-16 13:25:00,
2013-01-16 05:26:00,26.3,24.0,30.67,East,94,0.0,-999.0,91,0.00,,,0.00,0,Wunderground v.1.15,2013-01-16 13:26:00,
2013-01-16 05:29:00,26.3,24.0,30.67,East,94,0.0,-999.0,91,0.00,,,0.00,0,Wunderground v.1.15,2013-01-16 13:29:00,
2013-01-16 05:30:00,26.3,24.0,30.67,East,94,0.0,-999.0,91,0.00,,,0.00,0,Wunderground v.1.15,2013-01-16 13:30:00,
2013-01-16 05:31:00,26.3,24.0,30.67,East,94,0.0,-999.0,91,0.00,,,0.00,0,Wunderground v.1.15,2013-01-16 13:31:00,
2013-01-16 05:32:00,26.3,24.0,30.67,East,94,0.0,-999.0,91,0.00,,,0.00,0,Wunderground v.1.15,2013-01-16 13:32:00,
2013-01-16 05:34:00,26.3,24.0,30.67,East,94,0.0,-999.0,91,0.00,,,0.00,0,Wunderground v.1.15,2013-01-16 13:34:00,
2013-01-16 05:35:00,26.3,24.0,30.67,East,94,0.0,-999.0,91,0.00,,,0.00,0,Wunderground v.1.15,2013-01-16 13:35:00,
2013-01-16 05:36:00,26.3,24.0,30.67,East,94,0.0,-999.0,91,0.00,,,0.00,0,Wunderground v.1.15,2013-01-16 13:36:00,
2013-01-16 05:37:00,26.2,23.9,30.67,East,94,0.0,-999.0,91,0.00,,,0.00,0,Wunderground v.1.15,2013-01-16 13:37:00,
2013-01-16 05:40:00,26.2,23.9,30.67,East,94,0.0,-999.0,91,0.00,,,0.00,0,Wunderground v.1.15,2013-01-16 13:40:00,
2013-01-16 05:41:00,26.2,23.9,30.67,East,94,0.0,-999.0,91,0.00,,,0.00,0,Wunderground v.1.15,2013-01-16 13:41:00,
2013-01-16 05:42:00,26.2,23.9,30.67,East,94,0.0,-999.0,91,0.00,,,0.00,0,Wunderground v.1.15,2013-01-16 13:42:00,
2013-01-16 05:45:00,26.2,23.9,30.66,East,94,0.0,-999.0,91,0.00,,,0.00,0,Wunderground v.1.15,2013-01-16 13:45:00,
2013-01-16 05:46:00,26.2,23.9,30.66,East,94,0.0,-999.0,91,0.00,,,0.00,0,Wunderground v.1.15,2013-01-16 13:46:00,
2013-01-16 05:48:00,26.2,23.9,30.66,East,94,0.0,-999.0,91,0.00,,,0.00,0,Wunderground v.1.15,2013-01-16 13:48:00,
2013-01-16 05:50:00,26.3,24.0,30.66,East,94,0.0,-999.0,91,0.00,,,0.00,0,Wunderground v.1.15,2013-01-16 13:50:00,
2013-01-16 05:51:00,26.3,24.0,30.66,East,94,0.0,-999.0,91,0.00,,,0.00,0,Wunderground v.1.15,2013-01-16 13:51:00,
2013-01-16 05:53:00,26.3,24.0,30.66,East,94,0.0,-999.0,91,0.00,,,0.00,0,Wunderground v.1.15,2013-01-16 13:53:00,
2013-01-16 05:55:00,26.3,24.0,30.66,East,94,0.0,-999.0,91,0.00,,,0.00,0,Wunderground v.1.15,2013-01-16 13:55:00,
2013-01-16 05:56:00,26.3,24.0,30.66,East,94,0.0,-999.0,91,0.00,,,0.00,0,Wunderground v.1.15,2013-01-16 13:56:00,
2013-01-16 05:59:00,26.3,24.0,30.66,East,94,0.0,-999.0,91,0.00,,,0.00,0,Wunderground v.1.15,2013-01-16 13:59:00,
2013-01-16 06:00:00,26.3,24.0,30.66,East,94,0.0,-999.0,91,0.00,,,0.00,0,Wunderground v.1.15,2013-01-16 14:00:00,
2013-01-16 06:02:00,26.3,24.0,30.66,East,94,0.0,-999.0,91,0.00,,,0.00,0,Wunderground v.1.15,2013-01-16 14:02:00,
2013-01-16 06:04:00,26.3,24.0,30.66,East,94,0.0,-999.0,91,0.00,,,0.00,0,Wunderground v.1.15,2013-01-16 14:04:00,
2013-01-16 06:06:00,26.4,24.1,30.66,East,94,0.0,-999.0,91,0.00,,,0.00,0,Wunderground v.1.15,2013-01-16 14:06:00,
2013-01-16 06:07:00,26.4,24.1,30.66,East,94,0.0,-999.0,91,0.00,,,0.00,0,Wunderground v.1.15,2013-01-16 14:07:00,
2013-01-16 06:10:00,26.4,24.1,30.66,East,94,0.0,-999.0,91,0.00,,,0.00,0,Wunderground v.1.15,2013-01-16 14:10:00,
2013-01-16 06:11:00,26.4,24.1,30.66,East,94,0.0,-999.0,91,0.00,,,0.00,0,Wunderground v.1.15,2013-01-16 14:11:00,
2013-01-16 06:12:00,26.4,24.1,30.66,East,94,0.0,-999.0,91,0.00,,,0.00,0,Wunderground v.1.15,2013-01-16 14:12:00,
2013-01-16 06:15:00,26.4,24.1,30.66,East,94,0.0,-999.0,91,0.00,,,0.00,0,Wunderground v.1.15,2013-01-16 14:15:00,
2013-01-16 06:16:00,26.4,24.1,30.66,East,94,0.0,-999.0,91,0.00,,,0.00,0,Wunderground v.1.15,2013-01-16 14:16:00,
2013-01-16 06:17:00,26.4,24.1,30.66,East,94,0.0,-999.0,91,0.00,,,0.00,0,Wunderground v.1.15,2013-01-16 14:17:00,
2013-01-16 06:20:00,26.4,24.1,30.66,East,94,0.0,-999.0,91,0.00,,,0.00,0,Wunderground v.1.15,2013-01-16 14:20:00,
2013-01-16 06:21:00,26.3,24.0,30.66,East,94,0.0,-999.0,91,0.00,,,0.00,0,Wunderground v.1.15,2013-01-16 14:21:00,
2013-01-16 06:22:00,26.3,24.0,30.66,East,87,0.0,-999.0,91,0.00,,,0.00,0,Wunderground v.1.15,2013-01-16 14:22:00,
2013-01-16 06:25:00,26.3,24.0,30.66,East,94,0.0,-999.0,91,0.00,,,0.00,0,Wunderground v.1.15,2013-01-16 14:25:00,
2013-01-16 06:26:00,26.3,24.0,30.66,East,94,0.0,-999.0,91,0.00,,,0.00,0,Wunderground v.1.15,2013-01-16 14:26:00,
2013-01-16 06:27:00,26.3,24.0,30.66,East,94,0.0,-999.0,91,0.00,,,0.00,0,Wunderground v.1.15,2013-01-16 14:27:00,
2013-01-16 06:30:00,26.3,24.0,30.65,East,94,0.0,-999.0,91,0.00,,,0.00,0,Wunderground v.1.15,2013-01-16 14:30:00,
2013-01-16 06:31:00,26.3,24.0,30.65,East,94,0.0,-999.0,91,0.00,,,0.00,0,Wunderground v.1.15,2013-01-16 14:31:00,
2013-01-16 06:32:00,26.3,24.0,30.65,East,94,0.0,-999.0,91,0.00,,,0.00,0,Wunderground v.1.15,2013-01-16 14:32:00,
2013-01-16 06:33:00,26.3,24.0,30.65,East,94,0.0,-999.0,91,0.00,,,0.00,0,Wunderground v.1.15,2013-01-16 14:33:00,
2013-01-16 06:35:00,26.3,24.0,30.65,East,94,0.0,-999.0,91,0.00,,,0.00,0,Wunderground v.1.15,2013-01-16 14:35:00,
2013-01-16 06:36:00,26.3,24.0,30.65,East,94,0.0,-999.0,91,0.00,,,0.00,0,Wunderground v.1.15,2013-01-16 14:36:00,
2013-01-16 06:37:00,26.3,24.0,30.65,East,94,0.0,-999.0,91,0.00,,,0.00,0,Wunderground v.1.15,2013-01-16 14:37:00,
2013-01-16 06:38:00,26.3,24.0,30.65,East,94,0.0,-999.0,91,0.00,,,0.00,0,Wunderground v.1.15,2013-01-16 14:38:00,
2013-01-16 06:41:00,26.3,24.0,30.65,East,94,0.0,-999.0,91,0.00,,,0.00,0,Wunderground v.1.15,2013-01-16 14:41:00,
2013-01-16 06:42:00,26.3,24.0,30.65,East,94,0.0,-999.0,91,0.00,,,0.00,0,Wunderground v.1.15,2013-01-16 14:42:00,
2013-01-16 06:44:00,26.3,24.0,30.65,East,94,0.0,-999.0,91,0.00,,,0.00,0,Wunderground v.1.15,2013-01-16 14:44:00,
2013-01-16 06:46:00,26.3,24.0,30.66,East,94,0.0,-999.0,91,0.00,,,0.00,0,Wunderground v.1.15,2013-01-16 14:46:00,
2013-01-16 06:47:00,26.3,24.0,30.66,East,94,0.0,-999.0,91,0.00,,,0.00,0,Wunderground v.1.15,2013-01-16 14:47:00,
2013-01-16 06:49:00,26.3,24.0,30.66,East,94,0.0,-999.0,91,0.00,,,0.00,0,Wunderground v.1.15,2013-01-16 14:49:00,
2013-01-16 06:51:00,26.3,24.0,30.66,East,94,0.0,-999.0,91,0.00,,,0.00,0,Wunderground v.1.15,2013-01-16 14:51:00,
2013-01-16 06:52:00,26.3,24.0,30.66,East,94,0.0,-999.0,91,0.00,,,0.00,0,Wunderground v.1.15,2013-01-16 14:52:00,
2013-01-16 06:54:00,26.3,24.0,30.66,East,94,0.0,-999.0,91,0.00,,,0.00,0,Wunderground v.1.15,2013-01-16 14:54:00,
2013-01-16 06:56:00,26.3,24.0,30.66,East,94,0.0,-999.0,91,0.00,,,0.00,0,Wunderground v.1.15,2013-01-16 14:56:00,
2013-01-16 06:57:00,26.3,24.0,30.66,East,94,0.0,-999.0,91,0.00,,,0.00,0,Wunderground v.1.15,2013-01-16 14:57:00,
2013-01-16 06:58:00,26.3,24.0,30.66,East,94,0.0,-999.0,91,0.00,,,0.00,0,Wunderground v.1.15,2013-01-16 14:58:00,
2013-01-16 06:59:00,26.3,24.0,30.66,East,94,0.0,-999.0,91,0.00,,,0.00,0,Wunderground v.1.15,2013-01-16 14:59:00,
2013-01-16 07:01:00,26.3,24.0,30.65,East,94,0.0,-999.0,91,0.00,,,0.00,0,Wunderground v.1.15,2013-01-16 15:01:00,
2013-01-16 07:02:00,26.3,24.0,30.65,East,94,0.0,-999.0,91,0.00,,,0.00,0,Wunderground v.1.15,2013-01-16 15:02:00,
2013-01-16 07:03:00,26.3,24.0,30.65,East,94,0.0,-999.0,91,0.00,,,0.00,0,Wunderground v.1.15,2013-01-16 15:03:00,
2013-01-16 07:04:00,26.3,24.0,30.65,East,94,0.0,-999.0,91,0.00,,,0.00,0,Wunderground v.1.15,2013-01-16 15:04:00,
2013-01-16 07:06:00,26.3,24.0,30.65,East,94,0.0,-999.0,91,0.00,,,0.00,0,Wunderground v.1.15,2013-01-16 15:06:00,
2013-01-16 07:07:00,26.3,24.0,30.65,East,94,0.0,-999.0,91,0.00,,,0.00,0,Wunderground v.1.15,2013-01-16 15:07:00,
2013-01-16 07:08:00,26.3,24.0,30.65,East,94,0.0,-999.0,91,0.00,,,0.00,0,Wunderground v.1.15,2013-01-16 15:08:00,
2013-01-16 07:09:00,26.3,24.0,30.65,East,94,0.0,-999.0,91,0.00,,,0.00,0,Wunderground v.1.15,2013-01-16 15:09:00,
2013-01-16 07:11:00,26.3,24.0,30.65,East,94,0.0,-999.0,91,0.00,,,0.00,0,Wunderground v.1.15,2013-01-16 15:11:00,
2013-01-16 07:13:00,26.3,24.0,30.65,East,94,0.0,-999.0,91,0.00,,,0.00,0,Wunderground v.1.15,2013-01-16 15:13:00,
2013-01-16 07:14:00,26.3,24.0,30.65,East,94,0.0,-999.0,91,0.00,,,0.00,0,Wunderground v.1.15,2013-01-16 15:14:00,
2013-01-16 07:16:00,26.3,24.0,30.65,East,94,0.0,-999.0,91,0.00,,,0.00,0,Wunderground v.1.15,2013-01-16 15:16:00,
2013-01-16 07:18:00,26.3,24.0,30.65,East,94,0.0,-999.0,91,0.00,,,0.00,0,Wunderground v.1.15,2013-01-16 15:18:00,
2013-01-16 07:19:00,26.3,24.0,30.65,East,94,0.0,-999.0,91,0.00,,,0.00,0,Wunderground v.1.15,2013-01-16 15:19:00,
2013-01-16 07:22:00,26.2,23.9,30.65,East,94,0.0,-999.0,91,0.00,,,0.00,0,Wunderground v.1.15,2013-01-16 15:22:00,
2013-01-16 07:24:00,26.2,23.9,30.65,East,94,0.0,-999.0,91,0.00,,,0.00,0,Wunderground v.1.15,2013-01-16 15:24:00,
2013-01-16 07:27:00,26.2,23.9,30.65,East,94,0.0,-999.0,91,0.00,,,0.00,0,Wunderground v.1.15,2013-01-16 15:27:00,
2013-01-16 07:29:00,26.2,23.9,30.65,East,94,0.0,-999.0,91,0.00,,,0.00,0,Wunderground v.1.15,2013-01-16 15:29:00,
2013-01-16 07:30:00,26.2,23.9,30.65,East,94,0.0,-999.0,91,0.00,,,0.00,0,Wunderground v.1.15,2013-01-16 15:30:00,
2013-01-16 07:32:00,26.3,24.0,30.65,East,94,0.0,-999.0,91,0.00,,,0.00,0,Wunderground v.1.15,2013-01-16 15:32:00,
2013-01-16 07:34:00,26.3,24.0,30.65,East,94,0.0,-999.0,91,0.00,,,0.00,0,Wunderground v.1.15,2013-01-16 15:34:00,
2013-01-16 07:35:00,26.3,24.0,30.65,East,94,0.0,-999.0,91,0.00,,,0.00,0,Wunderground v.1.15,2013-01-16 15:35:00,
2013-01-16 07:36:00,26.3,24.0,30.65,East,94,0.0,-999.0,91,0.00,,,0.00,0,Wunderground v.1.15,2013-01-16 15:36:00,
2013-01-16 07:37:00,26.3,24.0,30.65,East,94,0.0,-999.0,91,0.00,,,0.00,0,Wunderground v.1.15,2013-01-16 15:37:00,
2013-01-16 07:40:00,26.3,24.0,30.65,East,94,0.0,-999.0,91,0.00,,,0.00,0,Wunderground v.1.15,2013-01-16 15:40:00,
2013-01-16 07:41:00,26.4,24.1,30.65,East,94,0.0,-999.0,91,0.00,,,0.00,0,Wunderground v.1.15,2013-01-16 15:41:00,
2013-01-16 07:42:00,26.4,24.1,30.65,East,94,0.0,-999.0,91,0.00,,,0.00,0,Wunderground v.1.15,2013-01-16 15:42:00,
2013-01-16 07:45:00,26.4,24.1,30.65,East,94,0.0,-999.0,91,0.00,,,0.00,0,Wunderground v.1.15,2013-01-16 15:45:00,
2013-01-16 07:46:00,26.4,24.1,30.65,East,94,0.0,-999.0,91,0.00,,,0.00,0,Wunderground v.1.15,2013-01-16 15:46:00,
2013-01-16 07:47:00,26.4,24.1,30.65,East,94,0.0,-999.0,91,0.00,,,0.00,0,Wunderground v.1.15,2013-01-16 15:47:00,
2013-01-16 07:50:00,26.4,24.1,30.65,East,94,0.0,-999.0,91,0.00,,,0.00,0,Wunderground v.1.15,2013-01-16 15:50:00,
2013-01-16 07:51:00,26.4,24.1,30.65,East,94,0.0,-999.0,91,0.00,,,0.00,0,Wunderground v.1.15,2013-01-16 15:51:00,
2013-01-16 07:52:00,26.4,24.1,30.65,East,94,0.0,-999.0,91,0.00,,,0.00,0,Wunderground v.1.15,2013-01-16 15:52:00,
2013-01-16 07:55:00,26.4,24.1,30.65,East,94,0.0,-999.0,91,0.00,,,0.00,0,Wunderground v.1.15,2013-01-16 15:55:00,
2013-01-16 07:56:00,26.4,24.1,30.65,East,94,0.0,-999.0,91,0.00,,,0.00,0,Wunderground v.1.15,2013-01-16 15:56:00,
2013-01-16 07:57:00,26.4,24.1,30.65,East,94,0.0,-999.0,91,0.00,,,0.00,0,Wunderground v.1.15,2013-01-16 15:57:00,
2013-01-16 08:01:00,26.4,24.1,30.66,East,94,0.0,-999.0,91,0.00,,,0.00,0,Wunderground v.1.15,2013-01-16 16:01:00,
2013-01-16 08:03:00,26.4,24.1,30.66,East,94,0.0,-999.0,91,0.00,,,0.00,0,Wunderground v.1.15,2013-01-16 16:03:00,
2013-01-16 08:06:00,26.4,24.1,30.66,East,87,0.0,-999.0,91,0.00,,,0.00,0,Wunderground v.1.15,2013-01-16 16:06:00,
2013-01-16 08:08:00,26.4,24.1,30.66,East,94,0.0,-999.0,91,0.00,,,0.00,0,Wunderground v.1.15,2013-01-16 16:08:00,
2013-01-16 08:11:00,26.4,24.1,30.66,East,94,0.0,-999.0,91,0.00,,,0.00,0,Wunderground v.1.15,2013-01-16 16:11:00,
2013-01-16 08:12:00,26.4,24.1,30.66,East,94,0.0,-999.0,91,0.00,,,0.00,0,Wunderground v.1.15,2013-01-16 16:12:00,
2013-01-16 08:13:00,26.4,24.1,30.66,East,94,0.0,-999.0,91,0.00,,,0.00,0,Wunderground v.1.15,2013-01-16 16:13:00,
2013-01-16 08:16:00,26.4,24.1,30.66,East,94,0.0,-999.0,91,0.00,,,0.00,0,Wunderground v.1.15,2013-01-16 16:16:00,
2013-01-16 08:17:00,26.4,24.1,30.66,East,94,0.0,-999.0,91,0.00,,,0.00,0,Wunderground v.1.15,2013-01-16 16:17:00,
2013-01-16 08:18:00,26.4,24.1,30.66,East,94,0.0,-999.0,91,0.00,,,0.00,0,Wunderground v.1.15,2013-01-16 16:18:00,
2013-01-16 08:22:00,26.4,24.1,30.66,East,94,0.0,-999.0,91,0.00,,,0.00,0,Wunderground v.1.15,2013-01-16 16:22:00,
2013-01-16 08:23:00,26.4,24.1,30.66,East,94,0.0,-999.0,91,0.00,,,0.00,0,Wunderground v.1.15,2013-01-16 16:23:00,
2013-01-16 08:27:00,26.4,24.1,30.66,East,94,0.0,-999.0,91,0.00,,,0.00,0,Wunderground v.1.15,2013-01-16 16:27:00,
2013-01-16 08:28:00,26.4,24.1,30.66,East,94,0.0,-999.0,91,0.00,,,0.00,5,Wunderground v.1.15,2013-01-16 16:28:00,
2013-01-16 08:32:00,26.4,24.1,30.66,East,94,0.0,-999.0,91,0.00,,,0.00,5,Wunderground v.1.15,2013-01-16 16:32:00,
2013-01-16 08:33:00,26.4,24.1,30.66,East,94,0.0,-999.0,91,0.00,,,0.00,5,Wunderground v.1.15,2013-01-16 16:33:00,
2013-01-16 08:37:00,26.4,24.1,30.66,East,94,0.0,-999.0,91,0.00,,,0.00,5,Wunderground v.1.15,2013-01-16 16:37:00,
2013-01-16 08:38:00,26.4,24.1,30.66,East,94,0.0,-999.0,91,0.00,,,0.00,5,Wunderground v.1.15,2013-01-16 16:38:00,
2013-01-16 08:42:00,26.6,24.3,30.66,East,94,0.0,-999.0,91,0.00,,,0.00,7,Wunderground v.1.15,2013-01-16 16:42:00,
2013-01-16 08:43:00,26.6,24.3,30.66,East,94,0.0,-999.0,91,0.00,,,0.00,7,Wunderground v.1.15,2013-01-16 16:43:00,
2013-01-16 08:47:00,26.6,24.3,30.66,East,94,0.0,-999.0,91,0.00,,,0.00,7,Wunderground v.1.15,2013-01-16 16:47:00,
2013-01-16 08:48:00,26.6,24.3,30.66,East,94,0.0,-999.0,91,0.00,,,0.00,9,Wunderground v.1.15,2013-01-16 16:48:00,
2013-01-16 08:49:00,26.6,24.3,30.66,East,94,0.0,-999.0,91,0.00,,,0.00,9,Wunderground v.1.15,2013-01-16 16:49:00,
2013-01-16 08:52:00,26.7,24.4,30.66,East,94,0.0,-999.0,91,0.00,,,0.00,9,Wunderground v.1.15,2013-01-16 16:52:00,
2013-01-16 08:54:00,26.7,24.4,30.66,East,94,0.0,-999.0,91,0.00,,,0.00,9,Wunderground v.1.15,2013-01-16 16:54:00,
2013-01-16 08:57:00,26.9,24.6,30.66,East,94,0.0,-999.0,91,0.00,,,0.00,9,Wunderground v.1.15,2013-01-16 16:57:00,
2013-01-16 08:59:00,26.9,24.6,30.66,East,94,0.0,-999.0,91,0.00,,,0.00,9,Wunderground v.1.15,2013-01-16 16:59:00,
2013-01-16 09:02:00,26.9,24.6,30.66,East,94,0.0,-999.0,91,0.00,,,0.00,11,Wunderground v.1.15,2013-01-16 17:02:00,
2013-01-16 09:03:00,26.9,24.6,30.66,East,94,0.0,-999.0,91,0.00,,,0.00,11,Wunderground v.1.15,2013-01-16 17:03:00,
2013-01-16 09:04:00,26.9,24.6,30.66,East,94,0.0,-999.0,91,0.00,,,0.00,11,Wunderground v.1.15,2013-01-16 17:04:00,
2013-01-16 09:05:00,27.0,24.7,30.66,East,94,0.0,-999.0,91,0.00,,,0.00,11,Wunderground v.1.15,2013-01-16 17:05:00,
2013-01-16 09:08:00,27.0,24.7,30.66,East,94,0.0,-999.0,91,0.00,,,0.00,11,Wunderground v.1.15,2013-01-16 17:08:00,
2013-01-16 09:09:00,27.2,24.9,30.66,East,94,0.0,-999.0,91,0.00,,,0.00,11,Wunderground v.1.15,2013-01-16 17:09:00,
2013-01-16 09:10:00,27.2,24.9,30.66,East,94,0.0,-999.0,91,0.00,,,0.00,11,Wunderground v.1.15,2013-01-16 17:10:00,
2013-01-16 09:14:00,27.3,25.0,30.66,East,94,0.0,-999.0,91,0.00,,,0.00,12,Wunderground v.1.15,2013-01-16 17:14:00,
2013-01-16 09:15:00,27.3,25.0,30.66,East,94,0.0,-999.0,91,0.00,,,0.00,12,Wunderground v.1.15,2013-01-16 17:15:00,
2013-01-16 09:19:00,27.5,25.2,30.66,East,94,0.0,-999.0,91,0.00,,,0.00,12,Wunderground v.1.15,2013-01-16 17:19:00,
2013-01-16 09:20:00,27.5,25.2,30.66,East,94,0.0,-999.0,91,0.00,,,0.00,12,Wunderground v.1.15,2013-01-16 17:20:00,
2013-01-16 09:24:00,27.6,25.3,30.66,East,94,0.0,-999.0,91,0.00,,,0.00,12,Wunderground v.1.15,2013-01-16 17:24:00,
2013-01-16 09:25:00,27.6,25.3,30.66,East,94,0.0,-999.0,91,0.00,,,0.00,12,Wunderground v.1.15,2013-01-16 17:25:00,
2013-01-16 09:30:00,27.8,25.5,30.66,East,94,0.0,-999.0,91,0.00,,,0.00,14,Wunderground v.1.15,2013-01-16 17:30:00,
2013-01-16 09:31:00,27.8,25.5,30.65,East,94,0.0,-999.0,91,0.00,,,0.00,14,Wunderground v.1.15,2013-01-16 17:31:00,
2013-01-16 09:35:00,27.9,25.6,30.65,East,94,0.0,-999.0,91,0.00,,,0.00,14,Wunderground v.1.15,2013-01-16 17:35:00,
2013-01-16 09:36:00,27.9,25.6,30.65,East,94,0.0,-999.0,91,0.00,,,0.00,14,Wunderground v.1.15,2013-01-16 17:36:00,
2013-01-16 09:40:00,28.1,25.8,30.65,East,94,0.0,-999.0,91,0.00,,,0.00,14,Wunderground v.1.15,2013-01-16 17:40:00,
2013-01-16 09:41:00,28.1,25.8,30.65,East,94,0.0,-999.0,91,0.00,,,0.00,14,Wunderground v.1.15,2013-01-16 17:41:00,
2013-01-16 09:45:00,28.2,25.9,30.65,East,94,0.0,-999.0,91,0.00,,,0.00,16,Wunderground v.1.15,2013-01-16 17:45:00,
2013-01-16 09:46:00,28.2,25.9,30.65,East,94,0.0,-999.0,91,0.00,,,0.00,16,Wunderground v.1.15,2013-01-16 17:46:00,
2013-01-16 09:50:00,28.4,26.1,30.65,East,94,0.0,-999.0,91,0.00,,,0.00,16,Wunderground v.1.15,2013-01-16 17:50:00,
2013-01-16 09:51:00,28.4,26.1,30.65,East,94,0.0,-999.0,91,0.00,,,0.00,18,Wunderground v.1.15,2013-01-16 17:51:00,
2013-01-16 09:55:00,28.5,26.2,30.65,East,94,0.0,-999.0,91,0.00,,,0.00,18,Wunderground v.1.15,2013-01-16 17:55:00,
2013-01-16 09:56:00,28.5,26.2,30.65,East,94,0.0,-999.0,91,0.00,,,0.00,18,Wunderground v.1.15,2013-01-16 17:56:00,
2013-01-16 09:57:00,28.7,26.4,30.65,East,94,0.0,-999.0,91,0.00,,,0.00,18,Wunderground v.1.15,2013-01-16 17:57:00,
2013-01-16 10:01:00,28.8,26.5,30.65,East,94,0.0,-999.0,91,0.00,,,0.00,19,Wunderground v.1.15,2013-01-16 18:01:00,
2013-01-16 10:02:00,28.8,26.5,30.65,East,94,0.0,-999.0,91,0.00,,,0.00,19,Wunderground v.1.15,2013-01-16 18:02:00,
2013-01-16 10:06:00,29.0,26.7,30.65,East,94,0.0,-999.0,91,0.00,,,0.00,21,Wunderground v.1.15,2013-01-16 18:06:00,
2013-01-16 10:07:00,29.1,26.8,30.65,East,94,0.0,-999.0,91,0.00,,,0.00,21,Wunderground v.1.15,2013-01-16 18:07:00,
2013-01-16 10:11:00,29.3,27.0,30.65,East,94,0.0,-999.0,91,0.00,,,0.00,21,Wunderground v.1.15,2013-01-16 18:11:00,
2013-01-16 10:12:00,29.3,27.0,30.65,East,94,0.0,-999.0,91,0.00,,,0.00,21,Wunderground v.1.15,2013-01-16 18:12:00,
2013-01-16 10:13:00,29.4,27.1,30.65,East,94,0.0,-999.0,91,0.00,,,0.00,21,Wunderground v.1.15,2013-01-16 18:13:00,
2013-01-16 10:16:00,29.4,27.1,30.65,East,94,0.0,-999.0,91,0.00,,,0.00,23,Wunderground v.1.15,2013-01-16 18:16:00,
2013-01-16 10:17:00,29.4,27.1,30.65,East,94,0.0,-999.0,91,0.00,,,0.00,23,Wunderground v.1.15,2013-01-16 18:17:00,
2013-01-16 10:18:00,29.6,27.3,30.65,East,94,0.0,-999.0,91,0.00,,,0.00,23,Wunderground v.1.15,2013-01-16 18:18:00,
2013-01-16 10:21:00,29.6,27.3,30.65,East,94,0.0,-999.0,91,0.00,,,0.00,23,Wunderground v.1.15,2013-01-16 18:21:00,
2013-01-16 10:22:00,29.7,27.4,30.65,East,94,0.0,-999.0,91,0.00,,,0.00,23,Wunderground v.1.15,2013-01-16 18:22:00,
2013-01-16 10:23:00,29.7,27.4,30.65,East,94,0.0,-999.0,91,0.00,,,0.00,23,Wunderground v.1.15,2013-01-16 18:23:00,
2013-01-16 10:27:00,29.7,27.4,30.65,East,94,0.0,-999.0,91,0.00,,,0.00,23,Wunderground v.1.15,2013-01-16 18:27:00,
2013-01-16 10:28:00,29.7,27.4,30.65,East,94,0.0,-999.0,91,0.00,,,0.00,23,Wunderground v.1.15,2013-01-16 18:28:00,
2013-01-16 10:32:00,29.9,27.6,30.65,East,94,0.0,-999.0,91,0.00,,,0.00,25,Wunderground v.1.15,2013-01-16 18:32:00,
2013-01-16 10:33:00,29.9,27.6,30.65,East,94,0.0,-999.0,91,0.00,,,0.00,25,Wunderground v.1.15,2013-01-16 18:33:00,
2013-01-16 10:38:00,30.0,27.7,30.65,East,94,0.0,-999.0,91,0.00,,,0.00,25,Wunderground v.1.15,2013-01-16 18:38:00,
2013-01-16 10:39:00,30.1,27.8,30.65,East,94,0.0,-999.0,91,0.00,,,0.00,25,Wunderground v.1.15,2013-01-16 18:39:00,
2013-01-16 10:43:00,30.1,27.8,30.65,East,94,0.0,-999.0,91,0.00,,,0.00,26,Wunderground v.1.15,2013-01-16 18:43:00,
2013-01-16 10:44:00,30.1,27.8,30.65,East,94,0.0,-999.0,91,0.00,,,0.00,26,Wunderground v.1.15,2013-01-16 18:44:00,
2013-01-16 10:48:00,30.3,28.0,30.64,East,94,0.0,-999.0,91,0.00,,,0.00,30,Wunderground v.1.15,2013-01-16 18:48:00,
2013-01-16 10:49:00,30.3,28.0,30.64,East,94,0.0,-999.0,91,0.00,,,0.00,28,Wunderground v.1.15,2013-01-16 18:49:00,
2013-01-16 10:53:00,30.4,28.1,30.64,East,94,0.0,-999.0,91,0.00,,,0.00,28,Wunderground v.1.15,2013-01-16 18:53:00,
2013-01-16 10:54:00,30.4,28.1,30.64,East,94,0.0,-999.0,91,0.00,,,0.00,30,Wunderground v.1.15,2013-01-16 18:54:00,
2013-01-16 10:55:00,30.4,28.1,30.64,East,94,0.0,-999.0,91,0.00,,,0.00,30,Wunderground v.1.15,2013-01-16 18:55:00,
2013-01-16 10:58:00,30.6,28.3,30.64,East,94,0.0,-999.0,91,0.00,,,0.00,32,Wunderground v.1.15,2013-01-16 18:58:00,
2013-01-16 10:59:00,30.6,28.3,30.64,East,94,0.0,-999.0,91,0.00,,,0.00,32,Wunderground v.1.15,2013-01-16 18:59:00,
2013-01-16 11:00:00,30.6,28.3,30.64,East,94,0.0,-999.0,91,0.00,,,0.00,32,Wunderground v.1.15,2013-01-16 19:00:00,
2013-01-16 11:03:00,30.7,28.4,30.64,East,94,0.0,-999.0,91,0.00,,,0.00,30,Wunderground v.1.15,2013-01-16 19:03:00,
2013-01-16 11:04:00,30.7,28.4,30.64,East,94,0.0,-999.0,91,0.00,,,0.00,30,Wunderground v.1.15,2013-01-16 19:04:00,
2013-01-16 11:05:00,30.9,28.6,30.64,East,94,0.0,-999.0,91,0.00,,,0.00,30,Wunderground v.1.15,2013-01-16 19:05:00,
2013-01-16 11:08:00,30.9,28.6,30.64,East,94,0.0,-999.0,91,0.00,,,0.00,30,Wunderground v.1.15,2013-01-16 19:08:00,
2013-01-16 11:10:00,31.0,28.7,30.64,East,94,0.0,-999.0,91,0.00,,,0.00,30,Wunderground v.1.15,2013-01-16 19:10:00,
2013-01-16 11:11:00,31.0,28.7,30.64,East,94,0.0,-999.0,91,0.00,,,0.00,30,Wunderground v.1.15,2013-01-16 19:11:00,
2013-01-16 11:14:00,31.2,28.9,30.64,East,94,0.0,-999.0,91,0.00,,,0.00,30,Wunderground v.1.15,2013-01-16 19:14:00,
2013-01-16 11:15:00,31.3,29.0,30.64,East,94,0.0,-999.0,91,0.00,,,0.00,30,Wunderground v.1.15,2013-01-16 19:15:00,
2013-01-16 11:16:00,31.5,29.2,30.64,East,94,0.0,-999.0,91,0.00,,,0.00,30,Wunderground v.1.15,2013-01-16 19:16:00,
2013-01-16 11:19:00,31.5,29.2,30.64,East,94,0.0,-999.0,91,0.00,,,0.00,32,Wunderground v.1.15,2013-01-16 19:19:00,
2013-01-16 11:20:00,31.6,29.3,30.64,East,94,0.0,-999.0,91,0.00,,,0.00,32,Wunderground v.1.15,2013-01-16 19:20:00,
2013-01-16 11:22:00,31.6,29.3,30.64,East,94,0.0,-999.0,91,0.00,,,0.00,32,Wunderground v.1.15,2013-01-16 19:22:00,
2013-01-16 11:25:00,31.8,29.5,30.64,East,94,0.0,-999.0,91,0.00,,,0.00,32,Wunderground v.1.15,2013-01-16 19:25:00,
2013-01-16 11:27:00,31.9,29.6,30.64,East,94,0.0,-999.0,91,0.00,,,0.00,32,Wunderground v.1.15,2013-01-16 19:27:00,
2013-01-16 11:30:00,32.1,29.8,30.64,East,94,0.0,-999.0,91,0.00,,,0.00,32,Wunderground v.1.15,2013-01-16 19:30:00,
2013-01-16 11:31:00,32.1,29.8,30.64,East,94,0.0,-999.0,91,0.00,,,0.00,32,Wunderground v.1.15,2013-01-16 19:31:00,
2013-01-16 11:32:00,32.1,29.8,30.64,East,94,0.0,-999.0,91,0.00,,,0.00,32,Wunderground v.1.15,2013-01-16 19:32:00,
2013-01-16 11:35:00,32.2,29.9,30.64,East,94,0.0,-999.0,91,0.00,,,0.00,35,Wunderground v.1.15,2013-01-16 19:35:00,
2013-01-16 11:36:00,32.2,29.9,30.64,East,94,0.0,-999.0,91,0.00,,,0.00,35,Wunderground v.1.15,2013-01-16 19:36:00,
2013-01-16 11:37:00,32.4,30.1,30.64,East,94,0.0,-999.0,91,0.00,,,0.00,35,Wunderground v.1.15,2013-01-16 19:37:00,
2013-01-16 11:40:00,32.5,30.2,30.64,East,94,0.0,-999.0,91,0.00,,,0.00,39,Wunderground v.1.15,2013-01-16 19:40:00,
2013-01-16 11:41:00,32.5,30.2,30.64,East,94,0.0,-999.0,91,0.00,,,0.00,39,Wunderground v.1.15,2013-01-16 19:41:00,
2013-01-16 11:42:00,32.5,30.2,30.64,East,94,0.0,-999.0,91,0.00,,,0.00,39,Wunderground v.1.15,2013-01-16 19:42:00,
2013-01-16 11:46:00,32.8,30.5,30.63,East,94,0.0,-999.0,91,0.00,,,0.00,187,Wunderground v.1.15,2013-01-16 19:46:00,
2013-01-16 11:47:00,32.8,30.5,30.63,East,94,0.0,-999.0,91,0.00,,,0.00,187,Wunderground v.1.15,2013-01-16 19:47:00,
2013-01-16 11:51:00,33.0,30.7,30.63,East,94,0.0,-999.0,91,0.00,,,0.00,37,Wunderground v.1.15,2013-01-16 19:51:00,
2013-01-16 11:52:00,33.1,30.8,30.63,East,94,0.0,-999.0,91,0.00,,,0.00,35,Wunderground v.1.15,2013-01-16 19:52:00,
2013-01-16 11:53:00,33.1,30.8,30.63,East,94,0.0,-999.0,91,0.00,,,0.00,35,Wunderground v.1.15,2013-01-16 19:53:00,
2013-01-16 11:56:00,33.3,31.0,30.63,East,94,0.0,-999.0,91,0.00,,,0.00,35,Wunderground v.1.15,2013-01-16 19:56:00,
2013-01-16 11:57:00,33.3,31.0,30.63,East,94,0.0,-999.0,91,0.00,,,0.00,35,Wunderground v.1.15,2013-01-16 19:57:00,
2013-01-16 11:58:00,33.3,31.0,30.63,East,94,0.0,-999.0,91,0.00,,,0.00,37,Wunderground v.1.15,2013-01-16 19:58:00,
2013-01-16 12:01:00,33.4,31.1,30.63,East,94,0.0,-999.0,91,0.00,,,0.00,35,Wunderground v.1.15,2013-01-16 20:01:00,
2013-01-16 12:02:00,33.4,31.1,30.63,East,94,0.0,-999.0,91,0.00,,,0.00,35,Wunderground v.1.15,2013-01-16 20:02:00,
2013-01-16 12:03:00,33.5,31.2,30.63,East,94,0.0,-999.0,91,0.00,,,0.00,32,Wunderground v.1.15,2013-01-16 20:03:00,
2013-01-16 12:06:00,33.5,31.2,30.63,East,94,0.0,-999.0,91,0.00,,,0.00,32,Wunderground v.1.15,2013-01-16 20:06:00,
2013-01-16 12:07:00,33.7,31.4,30.63,East,94,0.0,-999.0,91,0.00,,,0.00,32,Wunderground v.1.15,2013-01-16 20:07:00,
2013-01-16 12:08:00,33.7,31.4,30.63,East,94,0.0,-999.0,91,0.00,,,0.00,32,Wunderground v.1.15,2013-01-16 20:08:00,
2013-01-16 12:11:00,33.7,31.4,30.63,East,94,0.0,-999.0,91,0.00,,,0.00,32,Wunderground v.1.15,2013-01-16 20:11:00,
2013-01-16 12:12:00,33.7,31.4,30.63,East,94,0.0,-999.0,91,0.00,,,0.00,32,Wunderground v.1.15,2013-01-16 20:12:00,
2013-01-16 12:13:00,33.8,31.5,30.63,East,94,0.0,-999.0,91,0.00,,,0.00,32,Wunderground v.1.15,2013-01-16 20:13:00,
2013-01-16 12:14:00,33.8,31.5,30.63,East,94,0.0,-999.0,91,0.00,,,0.00,32,Wunderground v.1.15,2013-01-16 20:14:00,
2013-01-16 12:16:00,33.8,31.5,30.62,East,94,0.0,-999.0,91,0.00,,,0.00,32,Wunderground v.1.15,2013-01-16 20:16:00,
2013-01-16 12:18:00,34.0,31.6,30.62,East,94,0.0,-999.0,91,0.00,,,0.00,32,Wunderground v.1.15,2013-01-16 20:18:00,
2013-01-16 12:19:00,34.0,31.6,30.62,East,94,0.0,-999.0,91,0.00,,,0.00,32,Wunderground v.1.15,2013-01-16 20:19:00,
2013-01-16 12:21:00,34.0,31.6,30.62,East,94,0.0,-999.0,91,0.00,,,0.00,32,Wunderground v.1.15,2013-01-16 20:21:00,
2013-01-16 12:24:00,34.1,31.7,30.62,East,94,0.0,-999.0,91,0.00,,,0.00,32,Wunderground v.1.15,2013-01-16 20:24:00,
2013-01-16 12:26:00,34.1,31.7,30.62,East,94,0.0,-999.0,91,0.00,,,0.00,32,Wunderground v.1.15,2013-01-16 20:26:00,
2013-01-16 12:29:00,34.3,31.9,30.62,North,4,0.0,-999.0,91,0.00,,,0.00,32,Wunderground v.1.15,2013-01-16 20:29:00,
2013-01-16 12:31:00,34.3,31.9,30.62,North,2,1.0,-999.0,91,0.00,,,0.00,32,Wunderground v.1.15,2013-01-16 20:31:00,
2013-01-16 12:34:00,34.4,32.0,30.62,North,2,0.0,-999.0,91,0.00,,,0.00,30,Wunderground v.1.15,2013-01-16 20:34:00,
2013-01-16 12:35:00,34.4,32.0,30.62,North,2,0.0,-999.0,91,0.00,,,0.00,30,Wunderground v.1.15,2013-01-16 20:35:00,
2013-01-16 12:36:00,34.4,32.0,30.62,North,355,0.0,-999.0,91,0.00,,,0.00,30,Wunderground v.1.15,2013-01-16 20:36:00,
2013-01-16 12:40:00,34.6,32.2,30.62,North,2,0.0,-999.0,91,0.00,,,0.00,30,Wunderground v.1.15,2013-01-16 20:40:00,
2013-01-16 12:42:00,34.6,32.2,30.62,North,2,2.0,-999.0,91,0.00,,,0.00,30,Wunderground v.1.15,2013-01-16 20:42:00,
2013-01-16 12:45:00,34.6,32.2,30.62,North,1,0.0,-999.0,91,0.00,,,0.00,30,Wunderground v.1.15,2013-01-16 20:45:00,
2013-01-16 12:47:00,34.6,32.2,30.61,North,1,0.0,-999.0,91,0.00,,,0.00,30,Wunderground v.1.15,2013-01-16 20:47:00,
2013-01-16 12:50:00,34.7,32.3,30.61,North,1,0.0,-999.0,91,0.00,,,0.00,33,Wunderground v.1.15,2013-01-16 20:50:00,
2013-01-16 12:51:00,34.7,32.3,30.61,North,1,0.0,-999.0,91,0.00,,,0.00,33,Wunderground v.1.15,2013-01-16 20:51:00,
2013-01-16 12:52:00,34.7,32.3,30.61,North,1,0.0,-999.0,91,0.00,,,0.00,33,Wunderground v.1.15,2013-01-16 20:52:00,
2013-01-16 12:55:00,34.7,32.3,30.61,North,1,0.0,-999.0,91,0.00,,,0.00,30,Wunderground v.1.15,2013-01-16 20:55:00,
2013-01-16 12:56:00,34.7,32.3,30.61,North,1,0.0,-999.0,91,0.00,,,0.00,30,Wunderground v.1.15,2013-01-16 20:56:00,
2013-01-16 12:57:00,34.7,32.3,30.61,North,1,0.0,-999.0,91,0.00,,,0.00,35,Wunderground v.1.15,2013-01-16 20:57:00,
2013-01-16 13:00:00,34.7,32.3,30.61,North,1,0.0,-999.0,91,0.00,,,0.00,35,Wunderground v.1.15,2013-01-16 21:00:00,
2013-01-16 13:01:00,34.9,32.5,30.61,North,1,0.0,-999.0,91,0.00,,,0.00,35,Wunderground v.1.15,2013-01-16 21:01:00,
2013-01-16 13:02:00,34.9,32.5,30.61,NNW,328,0.0,-999.0,91,0.00,,,0.00,30,Wunderground v.1.15,2013-01-16 21:02:00,
2013-01-16 13:03:00,34.9,32.5,30.61,NNW,328,0.0,-999.0,91,0.00,,,0.00,30,Wunderground v.1.15,2013-01-16 21:03:00,
2013-01-16 13:06:00,34.9,32.5,30.61,NNW,328,0.0,-999.0,91,0.00,,,0.00,30,Wunderground v.1.15,2013-01-16 21:06:00,
2013-01-16 13:07:00,34.9,32.5,30.61,NNW,328,0.0,-999.0,91,0.00,,,0.00,28,Wunderground v.1.15,2013-01-16 21:07:00,
2013-01-16 13:08:00,34.9,32.5,30.61,NNW,328,0.0,-999.0,91,0.00,,,0.00,28,Wunderground v.1.15,2013-01-16 21:08:00,
2013-01-16 13:11:00,34.9,32.5,30.61,NNW,328,0.0,-999.0,91,0.00,,,0.00,28,Wunderground v.1.15,2013-01-16 21:11:00,
2013-01-16 13:12:00,34.9,32.5,30.61,NNW,328,0.0,-999.0,91,0.00,,,0.00,28,Wunderground v.1.15,2013-01-16 21:12:00,
2013-01-16 13:14:00,35.0,32.6,30.61,NNW,328,0.0,-999.0,91,0.00,,,0.00,28,Wunderground v.1.15,2013-01-16 21:14:00,
2013-01-16 13:16:00,35.0,32.6,30.61,NNW,328,0.0,-999.0,91,0.00,,,0.00,28,Wunderground v.1.15,2013-01-16 21:16:00,
2013-01-16 13:17:00,35.0,32.6,30.61,NNW,328,0.0,-999.0,91,0.00,,,0.00,28,Wunderground v.1.15,2013-01-16 21:17:00,
2013-01-16 13:19:00,35.0,32.6,30.61,NNW,328,0.0,-999.0,91,0.00,,,0.00,28,Wunderground v.1.15,2013-01-16 21:19:00,
2013-01-16 13:21:00,35.0,32.6,30.61,NNW,328,0.0,-999.0,91,0.00,,,0.00,28,Wunderground v.1.15,2013-01-16 21:21:00,
2013-01-16 13:22:00,35.0,32.6,30.61,NNW,328,0.0,-999.0,91,0.00,,,0.00,28,Wunderground v.1.15,2013-01-16 21:22:00,
2013-01-16 13:23:00,35.2,32.8,30.61,NNW,328,0.0,-999.0,91,0.00,,,0.00,28,Wunderground v.1.15,2013-01-16 21:23:00,
2013-01-16 13:24:00,35.2,32.8,30.61,NNW,328,0.0,-999.0,91,0.00,,,0.00,28,Wunderground v.1.15,2013-01-16 21:24:00,
2013-01-16 13:27:00,35.2,32.8,30.61,NNW,328,0.0,-999.0,91,0.00,,,0.00,28,Wunderground v.1.15,2013-01-16 21:27:00,
2013-01-16 13:28:00,35.2,32.8,30.61,NNW,328,0.0,-999.0,91,0.00,,,0.00,28,Wunderground v.1.15,2013-01-16 21:28:00,
2013-01-16 13:29:00,35.2,32.8,30.61,NNW,328,0.0,-999.0,91,0.00,,,0.00,28,Wunderground v.1.15,2013-01-16 21:29:00,
2013-01-16 13:32:00,35.2,32.8,30.60,NNW,328,0.0,-999.0,91,0.00,,,0.00,26,Wunderground v.1.15,2013-01-16 21:32:00,
2013-01-16 13:33:00,35.2,32.8,30.60,NNW,328,0.0,-999.0,91,0.00,,,0.00,26,Wunderground v.1.15,2013-01-16 21:33:00,
2013-01-16 13:34:00,35.3,32.9,30.60,NNW,328,0.0,-999.0,91,0.00,,,0.00,26,Wunderground v.1.15,2013-01-16 21:34:00,
2013-01-16 13:37:00,35.3,32.9,30.60,NNW,328,0.0,-999.0,91,0.00,,,0.00,26,Wunderground v.1.15,2013-01-16 21:37:00,
2013-01-16 13:38:00,35.3,32.9,30.60,NNW,328,0.0,-999.0,91,0.00,,,0.00,26,Wunderground v.1.15,2013-01-16 21:38:00,
2013-01-16 13:39:00,35.3,32.9,30.60,NNW,328,0.0,-999.0,91,0.00,,,0.00,26,Wunderground v.1.15,2013-01-16 21:39:00,
2013-01-16 13:42:00,35.5,33.1,30.60,NNW,328,0.0,-999.0,91,0.00,,,0.00,26,Wunderground v.1.15,2013-01-16 21:42:00,
2013-01-16 13:44:00,35.5,33.1,30.60,NNW,328,0.0,-999.0,91,0.00,,,0.00,26,Wunderground v.1.15,2013-01-16 21:44:00,
2013-01-16 13:45:00,35.5,33.1,30.60,NNW,328,0.0,-999.0,91,0.00,,,0.00,26,Wunderground v.1.15,2013-01-16 21:45:00,
2013-01-16 13:47:00,35.5,33.1,30.60,NNW,328,0.0,-999.0,91,0.00,,,0.00,26,Wunderground v.1.15,2013-01-16 21:47:00,
2013-01-16 13:48:00,35.5,33.1,30.60,NNW,328,0.0,-999.0,91,0.00,,,0.00,26,Wunderground v.1.15,2013-01-16 21:48:00,
2013-01-16 13:49:00,35.6,33.2,30.60,NNW,328,0.0,-999.0,91,0.00,,,0.00,26,Wunderground v.1.15,2013-01-16 21:49:00,
2013-01-16 13:50:00,35.6,33.2,30.60,NNW,328,0.0,-999.0,91,0.00,,,0.00,26,Wunderground v.1.15,2013-01-16 21:50:00,
2013-01-16 13:52:00,35.6,33.2,30.60,NNW,328,0.0,-999.0,91,0.00,,,0.00,26,Wunderground v.1.15,2013-01-16 21:52:00,
2013-01-16 13:54:00,35.6,33.2,30.60,NNW,328,0.0,-999.0,91,0.00,,,0.00,26,Wunderground v.1.15,2013-01-16 21:54:00,
2013-01-16 13:55:00,35.8,33.4,30.60,NNW,328,0.0,-999.0,91,0.00,,,0.00,26,Wunderground v.1.15,2013-01-16 21:55:00,
2013-01-16 13:57:00,35.8,33.4,30.60,NNW,328,0.0,-999.0,91,0.00,,,0.00,26,Wunderground v.1.15,2013-01-16 21:57:00,
2013-01-16 13:59:00,35.8,33.4,30.60,NNW,328,0.0,-999.0,91,0.00,,,0.00,26,Wunderground v.1.15,2013-01-16 21:59:00,
2013-01-16 14:00:00,35.8,33.4,30.60,NNW,328,0.0,-999.0,91,0.00,,,0.00,26,Wunderground v.1.15,2013-01-16 22:00:00,
2013-01-16 14:03:00,35.9,33.5,30.60,NNW,328,0.0,-999.0,91,0.00,,,0.00,25,Wunderground v.1.15,2013-01-16 22:03:00,
2013-01-16 14:04:00,35.9,33.5,30.60,NNW,328,0.0,-999.0,91,0.00,,,0.00,25,Wunderground v.1.15,2013-01-16 22:04:00,
2013-01-16 14:05:00,35.9,33.5,30.60,NNW,328,0.0,-999.0,91,0.00,,,0.00,25,Wunderground v.1.15,2013-01-16 22:05:00,
2013-01-16 14:06:00,35.9,33.5,30.60,NNW,328,0.0,-999.0,91,0.00,,,0.00,25,Wunderground v.1.15,2013-01-16 22:06:00,
2013-01-16 14:08:00,35.9,33.5,30.60,NNW,328,0.0,-999.0,91,0.00,,,0.00,25,Wunderground v.1.15,2013-01-16 22:08:00,
2013-01-16 14:09:00,35.9,33.5,30.60,NNW,328,0.0,-999.0,91,0.00,,,0.00,25,Wunderground v.1.15,2013-01-16 22:09:00,
2013-01-16 14:10:00,35.9,33.5,30.60,NNW,328,0.0,-999.0,91,0.00,,,0.00,25,Wunderground v.1.15,2013-01-16 22:10:00,
2013-01-16 14:11:00,35.9,33.5,30.60,NNW,328,0.0,-999.0,91,0.00,,,0.00,25,Wunderground v.1.15,2013-01-16 22:11:00,
2013-01-16 14:14:00,36.1,33.7,30.60,NNW,328,0.0,-999.0,91,0.00,,,0.00,25,Wunderground v.1.15,2013-01-16 22:14:00,
2013-01-16 14:15:00,36.1,33.7,30.60,NNW,328,0.0,-999.0,91,0.00,,,0.00,25,Wunderground v.1.15,2013-01-16 22:15:00,
2013-01-16 14:16:00,36.1,33.7,30.60,NNW,328,0.0,-999.0,91,0.00,,,0.00,25,Wunderground v.1.15,2013-01-16 22:16:00,
2013-01-16 14:19:00,36.2,33.8,30.60,NNW,330,0.0,-999.0,91,0.00,,,0.00,25,Wunderground v.1.15,2013-01-16 22:19:00,
2013-01-16 14:20:00,36.2,33.8,30.60,NW,324,0.0,-999.0,91,0.00,,,0.00,23,Wunderground v.1.15,2013-01-16 22:20:00,
2013-01-16 14:22:00,36.2,33.8,30.60,NNW,330,0.0,-999.0,91,0.00,,,0.00,23,Wunderground v.1.15,2013-01-16 22:22:00,
2013-01-16 14:24:00,36.4,34.0,30.60,NNW,330,0.0,-999.0,91,0.00,,,0.00,23,Wunderground v.1.15,2013-01-16 22:24:00,
2013-01-16 14:26:00,36.4,34.0,30.60,NNW,330,0.0,-999.0,91,0.00,,,0.00,23,Wunderground v.1.15,2013-01-16 22:26:00,
2013-01-16 14:27:00,36.4,34.0,30.60,NNW,330,0.0,-999.0,91,0.00,,,0.00,23,Wunderground v.1.15,2013-01-16 22:27:00,
2013-01-16 14:29:00,36.4,34.0,30.60,NNW,330,0.0,-999.0,91,0.00,,,0.00,23,Wunderground v.1.15,2013-01-16 22:29:00,
2013-01-16 14:30:00,36.4,34.0,30.59,NNW,330,0.0,-999.0,91,0.00,,,0.00,23,Wunderground v.1.15,2013-01-16 22:30:00,
2013-01-16 14:31:00,36.4,34.0,30.59,NNW,330,0.0,-999.0,91,0.00,,,0.00,23,Wunderground v.1.15,2013-01-16 22:31:00,
2013-01-16 14:32:00,36.4,34.0,30.59,NNW,330,0.0,-999.0,91,0.00,,,0.00,23,Wunderground v.1.15,2013-01-16 22:32:00,
2013-01-16 14:34:00,36.5,34.1,30.59,NNW,330,0.0,-999.0,91,0.00,,,0.00,21,Wunderground v.1.15,2013-01-16 22:34:00,
2013-01-16 14:36:00,36.5,34.1,30.59,NNW,330,0.0,-999.0,91,0.00,,,0.00,21,Wunderground v.1.15,2013-01-16 22:36:00,
2013-01-16 14:37:00,36.5,34.1,30.59,NNW,330,0.0,-999.0,91,0.00,,,0.00,21,Wunderground v.1.15,2013-01-16 22:37:00,
2013-01-16 14:38:00,36.5,34.1,30.59,NNW,330,0.0,-999.0,91,0.00,,,0.00,21,Wunderground v.1.15,2013-01-16 22:38:00,
2013-01-16 14:40:00,36.5,34.1,30.59,NNW,330,0.0,-999.0,91,0.00,,,0.00,21,Wunderground v.1.15,2013-01-16 22:40:00,
2013-01-16 14:41:00,36.5,34.1,30.59,NNW,330,0.0,-999.0,91,0.00,,,0.00,21,Wunderground v.1.15,2013-01-16 22:41:00,
2013-01-16 14:42:00,36.5,34.1,30.59,NNW,330,0.0,-999.0,91,0.00,,,0.00,21,Wunderground v.1.15,2013-01-16 22:42:00,
2013-01-16 14:43:00,36.5,34.1,30.59,NNW,330,0.0,-999.0,91,0.00,,,0.00,21,Wunderground v.1.15,2013-01-16 22:43:00,
2013-01-16 14:45:00,36.6,34.2,30.59,NNW,330,0.0,-999.0,91,0.00,,,0.00,21,Wunderground v.1.15,2013-01-16 22:45:00,
2013-01-16 14:46:00,36.6,34.2,30.59,NNW,330,0.0,-999.0,91,0.00,,,0.00,19,Wunderground v.1.15,2013-01-16 22:46:00,
2013-01-16 14:47:00,36.6,34.2,30.59,NNW,330,0.0,-999.0,91,0.00,,,0.00,19,Wunderground v.1.15,2013-01-16 22:47:00,
2013-01-16 14:48:00,36.6,34.2,30.59,NNW,330,0.0,-999.0,91,0.00,,,0.00,19,Wunderground v.1.15,2013-01-16 22:48:00,
2013-01-16 14:50:00,36.6,34.2,30.59,NNW,330,0.0,-999.0,91,0.00,,,0.00,19,Wunderground v.1.15,2013-01-16 22:50:00,
2013-01-16 14:51:00,36.6,34.2,30.59,NNW,330,0.0,-999.0,91,0.00,,,0.00,19,Wunderground v.1.15,2013-01-16 22:51:00,
2013-01-16 14:52:00,36.6,34.2,30.59,NNW,330,0.0,-999.0,91,0.00,,,0.00,19,Wunderground v.1.15,2013-01-16 22:52:00,
2013-01-16 14:53:00,36.6,34.2,30.59,NNW,330,0.0,-999.0,91,0.00,,,0.00,19,Wunderground v.1.15,2013-01-16 22:53:00,
2013-01-16 14:55:00,36.6,34.2,30.59,NNW,330,0.0,-999.0,91,0.00,,,0.00,19,Wunderground v.1.15,2013-01-16 22:55:00,
2013-01-16 14:57:00,36.8,34.4,30.59,NNW,330,0.0,-999.0,91,0.00,,,0.00,19,Wunderground v.1.15,2013-01-16 22:57:00,
2013-01-16 14:59:00,36.8,34.4,30.59,NNW,330,0.0,-999.0,91,0.00,,,0.00,18,Wunderground v.1.15,2013-01-16 22:59:00,
2013-01-16 15:00:00,36.8,34.4,30.59,NNW,330,0.0,-999.0,91,0.00,,,0.00,18,Wunderground v.1.15,2013-01-16 23:00:00,
2013-01-16 15:02:00,36.8,34.4,30.59,NNW,330,0.0,-999.0,91,0.00,,,0.00,18,Wunderground v.1.15,2013-01-16 23:02:00,
2013-01-16 15:04:00,36.8,34.4,30.59,NNW,330,0.0,-999.0,91,0.00,,,0.00,18,Wunderground v.1.15,2013-01-16 23:04:00,
2013-01-16 15:06:00,36.8,34.4,30.59,NNW,330,0.0,-999.0,91,0.00,,,0.00,18,Wunderground v.1.15,2013-01-16 23:06:00,
2013-01-16 15:07:00,36.8,34.4,30.59,NNW,330,0.0,-999.0,91,0.00,,,0.00,21,Wunderground v.1.15,2013-01-16 23:07:00,
2013-01-16 15:10:00,36.8,34.4,30.59,NNW,330,0.0,-999.0,91,0.00,,,0.00,21,Wunderground v.1.15,2013-01-16 23:10:00,
2013-01-16 15:11:00,36.8,34.4,30.59,NNW,330,0.0,-999.0,91,0.00,,,0.00,16,Wunderground v.1.15,2013-01-16 23:11:00,
2013-01-16 15:12:00,36.8,34.4,30.59,NNW,330,0.0,-999.0,91,0.00,,,0.00,16,Wunderground v.1.15,2013-01-16 23:12:00,
2013-01-16 15:13:00,36.8,34.4,30.59,NNW,330,0.0,-999.0,91,0.00,,,0.00,16,Wunderground v.1.15,2013-01-16 23:13:00,
2013-01-16 15:15:00,36.8,34.4,30.59,NNW,330,0.0,-999.0,91,0.00,,,0.00,16,Wunderground v.1.15,2013-01-16 23:15:00,
2013-01-16 15:16:00,36.8,34.4,30.59,NNW,330,0.0,-999.0,91,0.00,,,0.00,16,Wunderground v.1.15,2013-01-16 23:16:00,
2013-01-16 15:17:00,36.8,34.4,30.59,NNW,330,0.0,-999.0,91,0.00,,,0.00,16,Wunderground v.1.15,2013-01-16 23:17:00,
2013-01-16 15:18:00,36.8,34.4,30.59,NNW,330,0.0,-999.0,91,0.00,,,0.00,16,Wunderground v.1.15,2013-01-16 23:18:00,
2013-01-16 15:20:00,36.8,34.4,30.59,NNW,330,0.0,-999.0,91,0.00,,,0.00,16,Wunderground v.1.15,2013-01-16 23:20:00,
2013-01-16 15:22:00,36.8,34.4,30.59,NNW,330,0.0,-999.0,91,0.00,,,0.00,16,Wunderground v.1.15,2013-01-16 23:22:00,
2013-01-16 15:23:00,36.8,34.4,30.59,NNW,330,0.0,-999.0,91,0.00,,,0.00,14,Wunderground v.1.15,2013-01-16 23:23:00,
2013-01-16 15:26:00,36.6,34.2,30.59,NNW,330,0.0,-999.0,91,0.00,,,0.00,14,Wunderground v.1.15,2013-01-16 23:26:00,
2013-01-16 15:27:00,36.6,34.2,30.59,NNW,330,0.0,-999.0,91,0.00,,,0.00,14,Wunderground v.1.15,2013-01-16 23:27:00,
2013-01-16 15:28:00,36.6,34.2,30.59,NNW,330,0.0,-999.0,91,0.00,,,0.00,14,Wunderground v.1.15,2013-01-16 23:28:00,
2013-01-16 15:32:00,36.5,34.1,30.59,NNW,330,0.0,-999.0,91,0.00,,,0.00,14,Wunderground v.1.15,2013-01-16 23:32:00,
2013-01-16 15:33:00,36.4,34.0,30.59,NNW,330,0.0,-999.0,91,0.00,,,0.00,14,Wunderground v.1.15,2013-01-16 23:33:00,
2013-01-16 15:37:00,36.2,33.8,30.59,NNW,330,0.0,-999.0,91,0.00,,,0.00,12,Wunderground v.1.15,2013-01-16 23:37:00,
2013-01-16 15:38:00,36.2,33.8,30.59,NNW,330,0.0,-999.0,91,0.00,,,0.00,12,Wunderground v.1.15,2013-01-16 23:38:00,
2013-01-16 15:39:00,36.2,33.8,30.59,NNW,330,0.0,-999.0,91,0.00,,,0.00,12,Wunderground v.1.15,2013-01-16 23:39:00,
2013-01-16 15:43:00,36.1,33.7,30.59,NNW,330,0.0,-999.0,91,0.00,,,0.00,12,Wunderground v.1.15,2013-01-16 23:43:00,
2013-01-16 15:44:00,35.9,33.5,30.59,NNW,330,0.0,-999.0,91,0.00,,,0.00,11,Wunderground v.1.15,2013-01-16 23:44:00,
2013-01-16 15:45:00,35.9,33.5,30.59,NNW,330,0.0,-999.0,91,0.00,,,0.00,11,Wunderground v.1.15,2013-01-16 23:45:00,
2013-01-16 15:48:00,35.8,33.4,30.59,NW,324,0.0,-999.0,91,0.00,,,0.00,9,Wunderground v.1.15,2013-01-16 23:48:00,
2013-01-16 15:50:00,35.6,33.2,30.59,NNW,330,0.0,-999.0,91,0.00,,,0.00,9,Wunderground v.1.15,2013-01-16 23:50:00,
2013-01-16 15:53:00,35.5,33.1,30.59,NNW,330,0.0,-999.0,91,0.00,,,0.00,7,Wunderground v.1.15,2013-01-16 23:53:00,
2013-01-16 15:55:00,35.5,33.1,30.59,NNW,330,0.0,-999.0,91,0.00,,,0.00,7,Wunderground v.1.15,2013-01-16 23:55:00,
2013-01-16 15:58:00,35.3,32.9,30.59,NNW,330,0.0,-999.0,91,0.00,,,0.00,7,Wunderground v.1.15,2013-01-16 23:58:00,
2013-01-16 16:00:00,35.3,32.9,30.58,NNW,330,0.0,-999.0,91,0.00,,,0.00,7,Wunderground v.1.15,2013-01-17 00:00:00,
2013-01-16 16:03:00,35.2,32.8,30.58,NNW,330,0.0,-999.0,91,0.00,,,0.00,5,Wunderground v.1.15,2013-01-17 00:03:00,
2013-01-16 16:04:00,35.2,32.8,30.58,NNW,330,0.0,-999.0,91,0.00,,,0.00,5,Wunderground v.1.15,2013-01-17 00:04:00,
2013-01-16 16:05:00,35.0,32.6,30.58,NNW,330,0.0,-999.0,91,0.00,,,0.00,0,Wunderground v.1.15,2013-01-17 00:05:00,
2013-01-16 16:06:00,35.0,32.6,30.58,NNW,330,0.0,-999.0,91,0.00,,,0.00,0,Wunderground v.1.15,2013-01-17 00:06:00,
2013-01-16 16:09:00,35.0,32.6,30.58,NNW,330,0.0,-999.0,91,0.00,,,0.00,0,Wunderground v.1.15,2013-01-17 00:09:00,
2013-01-16 16:11:00,34.9,32.5,30.58,NNW,330,0.0,-999.0,91,0.00,,,0.00,0,Wunderground v.1.15,2013-01-17 00:11:00,
2013-01-16 16:14:00,34.7,32.3,30.58,NNW,330,0.0,-999.0,91,0.00,,,0.00,0,Wunderground v.1.15,2013-01-17 00:14:00,
2013-01-16 16:16:00,34.7,32.3,30.58,NNW,330,0.0,-999.0,91,0.00,,,0.00,0,Wunderground v.1.15,2013-01-17 00:16:00,
2013-01-16 16:19:00,34.6,32.2,30.58,NNW,330,0.0,-999.0,91,0.00,,,0.00,0,Wunderground v.1.15,2013-01-17 00:19:00,
2013-01-16 16:21:00,34.4,32.0,30.58,NNW,330,0.0,-999.0,91,0.00,,,0.00,0,Wunderground v.1.15,2013-01-17 00:21:00,
2013-01-16 16:24:00,34.3,31.9,30.58,NNW,330,0.0,-999.0,91,0.00,,,0.00,0,Wunderground v.1.15,2013-01-17 00:24:00,
2013-01-16 16:25:00,34.3,31.9,30.58,NNW,330,0.0,-999.0,91,0.00,,,0.00,0,Wunderground v.1.15,2013-01-17 00:25:00,
2013-01-16 16:26:00,34.3,31.9,30.58,NNW,330,0.0,-999.0,91,0.00,,,0.00,0,Wunderground v.1.15,2013-01-17 00:26:00,
2013-01-16 16:27:00,34.3,31.9,30.58,NNW,330,0.0,-999.0,91,0.00,,,0.00,0,Wunderground v.1.15,2013-01-17 00:27:00,
2013-01-16 16:29:00,34.1,31.7,30.58,NNW,330,0.0,-999.0,91,0.00,,,0.00,0,Wunderground v.1.15,2013-01-17 00:29:00,
2013-01-16 16:30:00,34.1,31.7,30.58,NNW,330,0.0,-999.0,91,0.00,,,0.00,0,Wunderground v.1.15,2013-01-17 00:30:00,
2013-01-16 16:31:00,34.1,31.7,30.58,NNW,330,0.0,-999.0,91,0.00,,,0.00,0,Wunderground v.1.15,2013-01-17 00:31:00,
2013-01-16 16:32:00,34.0,31.6,30.58,NNW,330,0.0,-999.0,91,0.00,,,0.00,0,Wunderground v.1.15,2013-01-17 00:32:00,
2013-01-16 16:34:00,33.8,31.5,30.58,NNW,330,0.0,-999.0,91,0.00,,,0.00,0,Wunderground v.1.15,2013-01-17 00:34:00,
2013-01-16 16:35:00,33.8,31.5,30.58,NNW,330,0.0,-999.0,91,0.00,,,0.00,0,Wunderground v.1.15,2013-01-17 00:35:00,
2013-01-16 16:36:00,33.8,31.5,30.58,NNW,330,0.0,-999.0,91,0.00,,,0.00,0,Wunderground v.1.15,2013-01-17 00:36:00,
2013-01-16 16:37:00,33.7,31.4,30.58,NNW,330,0.0,-999.0,91,0.00,,,0.00,0,Wunderground v.1.15,2013-01-17 00:37:00,
2013-01-16 16:40:00,33.7,31.4,30.58,NNW,330,0.0,-999.0,91,0.00,,,0.00,0,Wunderground v.1.15,2013-01-17 00:40:00,
2013-01-16 16:41:00,33.7,31.4,30.58,NNW,330,0.0,-999.0,91,0.00,,,0.00,0,Wunderground v.1.15,2013-01-17 00:41:00,
2013-01-16 16:42:00,33.7,31.4,30.58,NNW,330,0.0,-999.0,91,0.00,,,0.00,0,Wunderground v.1.15,2013-01-17 00:42:00,
2013-01-16 16:45:00,33.5,31.2,30.58,NNW,330,0.0,-999.0,91,0.00,,,0.00,0,Wunderground v.1.15,2013-01-17 00:45:00,
2013-01-16 16:47:00,33.5,31.2,30.58,NNW,330,0.0,-999.0,91,0.00,,,0.00,0,Wunderground v.1.15,2013-01-17 00:47:00,
2013-01-16 16:50:00,33.5,31.2,30.58,NNW,330,0.0,-999.0,91,0.00,,,0.00,0,Wunderground v.1.15,2013-01-17 00:50:00,
2013-01-16 16:51:00,33.5,31.2,30.58,NNW,330,0.0,-999.0,91,0.00,,,0.00,0,Wunderground v.1.15,2013-01-17 00:51:00,
2013-01-16 16:52:00,33.4,31.1,30.58,NNW,330,0.0,-999.0,91,0.00,,,0.00,0,Wunderground v.1.15,2013-01-17 00:52:00,
2013-01-16 16:56:00,33.4,31.1,30.58,NNW,330,0.0,-999.0,91,0.00,,,0.00,0,Wunderground v.1.15,2013-01-17 00:56:00,
2013-01-16 16:57:00,33.4,31.1,30.58,NNW,330,0.0,-999.0,91,0.00,,,0.00,0,Wunderground v.1.15,2013-01-17 00:57:00,
2013-01-16 16:58:00,33.4,31.1,30.58,NNW,330,0.0,-999.0,91,0.00,,,0.00,0,Wunderground v.1.15,2013-01-17 00:58:00,
2013-01-16 17:01:00,33.3,31.0,30.58,NNW,330,0.0,-999.0,91,0.00,,,0.00,0,Wunderground v.1.15,2013-01-17 01:01:00,
2013-01-16 17:03:00,33.3,31.0,30.58,NNW,330,0.0,-999.0,91,0.00,,,0.00,0,Wunderground v.1.15,2013-01-17 01:03:00,
2013-01-16 17:06:00,33.1,30.8,30.58,NNW,330,0.0,-999.0,91,0.00,,,0.00,0,Wunderground v.1.15,2013-01-17 01:06:00,
2013-01-16 17:08:00,33.1,30.8,30.58,NNW,330,0.0,-999.0,91,0.00,,,0.00,0,Wunderground v.1.15,2013-01-17 01:08:00,
2013-01-16 17:12:00,33.0,30.7,30.58,NNW,330,0.0,-999.0,91,0.00,,,0.00,0,Wunderground v.1.15,2013-01-17 01:12:00,
2013-01-16 17:13:00,33.0,30.7,30.58,NNW,330,0.0,-999.0,91,0.00,,,0.00,0,Wunderground v.1.15,2013-01-17 01:13:00,
2013-01-16 17:17:00,33.0,30.7,30.58,NNW,330,0.0,-999.0,91,0.00,,,0.00,0,Wunderground v.1.15,2013-01-17 01:17:00,
2013-01-16 17:18:00,32.8,30.5,30.58,NNW,330,0.0,-999.0,91,0.00,,,0.00,0,Wunderground v.1.15,2013-01-17 01:18:00,
2013-01-16 17:19:00,32.8,30.5,30.58,NNW,330,0.0,-999.0,91,0.00,,,0.00,0,Wunderground v.1.15,2013-01-17 01:19:00,
2013-01-16 17:22:00,32.8,30.5,30.58,NNW,330,0.0,-999.0,91,0.00,,,0.00,0,Wunderground v.1.15,2013-01-17 01:22:00,
2013-01-16 17:24:00,32.8,30.5,30.58,NW,324,0.0,-999.0,91,0.00,,,0.00,0,Wunderground v.1.15,2013-01-17 01:24:00,
2013-01-16 17:27:00,32.7,30.4,30.58,NNW,330,0.0,-999.0,91,0.00,,,0.00,0,Wunderground v.1.15,2013-01-17 01:27:00,
2013-01-16 17:29:00,32.7,30.4,30.58,NNW,330,0.0,-999.0,91,0.00,,,0.00,0,Wunderground v.1.15,2013-01-17 01:29:00,
2013-01-16 17:30:00,32.7,30.4,30.58,NNW,330,0.0,-999.0,91,0.00,,,0.00,0,Wunderground v.1.15,2013-01-17 01:30:00,
2013-01-16 17:32:00,32.5,30.2,30.58,NNW,330,0.0,-999.0,91,0.00,,,0.00,0,Wunderground v.1.15,2013-01-17 01:32:00,
2013-01-16 17:33:00,32.5,30.2,30.58,NNW,330,0.0,-999.0,91,0.00,,,0.00,0,Wunderground v.1.15,2013-01-17 01:33:00,
2013-01-16 17:34:00,32.5,30.2,30.58,NNW,330,0.0,-999.0,91,0.00,,,0.00,0,Wunderground v.1.15,2013-01-17 01:34:00,
2013-01-16 17:35:00,32.5,30.2,30.58,NNW,330,0.0,-999.0,91,0.00,,,0.00,0,Wunderground v.1.15,2013-01-17 01:35:00,
2013-01-16 17:38:00,32.5,30.2,30.58,NNW,330,0.0,-999.0,91,0.00,,,0.00,0,Wunderground v.1.15,2013-01-17 01:38:00,
2013-01-16 17:39:00,32.5,30.2,30.58,NNW,330,0.0,-999.0,91,0.00,,,0.00,0,Wunderground v.1.15,2013-01-17 01:39:00,
2013-01-16 17:40:00,32.5,30.2,30.58,NNW,330,0.0,-999.0,91,0.00,,,0.00,0,Wunderground v.1.15,2013-01-17 01:40:00,
2013-01-16 17:43:00,32.5,30.2,30.58,NNW,330,0.0,-999.0,91,0.00,,,0.00,0,Wunderground v.1.15,2013-01-17 01:43:00,
2013-01-16 17:45:00,32.5,30.2,30.58,NNW,330,0.0,-999.0,91,0.00,,,0.00,0,Wunderground v.1.15,2013-01-17 01:45:00,
2013-01-16 17:48:00,32.5,30.2,30.58,NNW,330,0.0,-999.0,91,0.00,,,0.00,0,Wunderground v.1.15,2013-01-17 01:48:00,
2013-01-16 17:50:00,32.5,30.2,30.58,NNW,330,0.0,-999.0,91,0.00,,,0.00,0,Wunderground v.1.15,2013-01-17 01:50:00,
2013-01-16 17:53:00,32.5,30.2,30.58,NNW,330,0.0,-999.0,91,0.00,,,0.00,0,Wunderground v.1.15,2013-01-17 01:53:00,
2013-01-16 17:54:00,32.5,30.2,30.58,NNW,330,0.0,-999.0,91,0.00,,,0.00,0,Wunderground v.1.15,2013-01-17 01:54:00,
2013-01-16 17:55:00,32.4,30.1,30.58,NNW,330,0.0,-999.0,91,0.00,,,0.00,0,Wunderground v.1.15,2013-01-17 01:55:00,
2013-01-16 17:56:00,32.4,30.1,30.58,NNW,330,0.0,-999.0,91,0.00,,,0.00,0,Wunderground v.1.15,2013-01-17 01:56:00,
2013-01-16 17:58:00,32.4,30.1,30.58,NNW,330,0.0,-999.0,91,0.00,,,0.00,0,Wunderground v.1.15,2013-01-17 01:58:00,
2013-01-16 17:59:00,32.4,30.1,30.58,NNW,330,0.0,-999.0,91,0.00,,,0.00,0,Wunderground v.1.15,2013-01-17 01:59:00,
2013-01-16 18:01:00,32.4,30.1,30.58,NNW,330,0.0,-999.0,91,0.00,,,0.00,0,Wunderground v.1.15,2013-01-17 02:01:00,
2013-01-16 18:03:00,32.4,30.1,30.58,NNW,330,0.0,-999.0,91,0.00,,,0.00,0,Wunderground v.1.15,2013-01-17 02:03:00,
2013-01-16 18:04:00,32.4,30.1,30.58,NNW,330,0.0,-999.0,91,0.00,,,0.00,0,Wunderground v.1.15,2013-01-17 02:04:00,
2013-01-16 18:05:00,32.4,30.1,30.58,NNW,330,0.0,-999.0,91,0.00,,,0.00,0,Wunderground v.1.15,2013-01-17 02:05:00,
2013-01-16 18:06:00,32.4,30.1,30.58,NNW,330,0.0,-999.0,91,0.00,,,0.00,0,Wunderground v.1.15,2013-01-17 02:06:00,
2013-01-16 18:09:00,32.4,30.1,30.58,NNW,330,0.0,-999.0,91,0.00,,,0.00,0,Wunderground v.1.15,2013-01-17 02:09:00,
2013-01-16 18:10:00,32.4,30.1,30.58,NNW,330,0.0,-999.0,91,0.00,,,0.00,0,Wunderground v.1.15,2013-01-17 02:10:00,
2013-01-16 18:11:00,32.4,30.1,30.58,NNW,330,0.0,-999.0,91,0.00,,,0.00,0,Wunderground v.1.15,2013-01-17 02:11:00,
2013-01-16 18:14:00,32.4,30.1,30.58,NNW,330,0.0,-999.0,91,0.00,,,0.00,0,Wunderground v.1.15,2013-01-17 02:14:00,
2013-01-16 18:15:00,32.4,30.1,30.58,NNW,330,0.0,-999.0,91,0.00,,,0.00,0,Wunderground v.1.15,2013-01-17 02:15:00,
2013-01-16 18:16:00,32.4,30.1,30.57,NNW,330,0.0,-999.0,91,0.00,,,0.00,0,Wunderground v.1.15,2013-01-17 02:16:00,
2013-01-16 18:19:00,32.5,30.2,30.57,NNW,330,0.0,-999.0,91,0.00,,,0.00,0,Wunderground v.1.15,2013-01-17 02:19:00,
2013-01-16 18:20:00,32.5,30.2,30.57,NNW,330,0.0,-999.0,91,0.00,,,0.00,0,Wunderground v.1.15,2013-01-17 02:20:00,
2013-01-16 18:21:00,32.5,30.2,30.57,NNW,330,0.0,-999.0,91,0.00,,,0.00,0,Wunderground v.1.15,2013-01-17 02:21:00,
2013-01-16 18:22:00,32.5,30.2,30.57,NNW,330,0.0,-999.0,91,0.00,,,0.00,0,Wunderground v.1.15,2013-01-17 02:22:00,
2013-01-16 18:24:00,32.5,30.2,30.57,NNW,330,0.0,-999.0,91,0.00,,,0.00,0,Wunderground v.1.15,2013-01-17 02:24:00,
2013-01-16 18:25:00,32.5,30.2,30.57,NNW,330,0.0,-999.0,91,0.00,,,0.00,0,Wunderground v.1.15,2013-01-17 02:25:00,
2013-01-16 18:26:00,32.5,30.2,30.57,NNW,330,0.0,-999.0,91,0.00,,,0.00,0,Wunderground v.1.15,2013-01-17 02:26:00,
2013-01-16 18:27:00,32.7,30.4,30.57,NNW,330,0.0,-999.0,91,0.00,,,0.00,0,Wunderground v.1.15,2013-01-17 02:27:00,
2013-01-16 18:29:00,32.7,30.4,30.57,NNW,330,0.0,-999.0,91,0.00,,,0.00,0,Wunderground v.1.15,2013-01-17 02:29:00,
2013-01-16 18:30:00,32.7,30.4,30.57,NNW,330,0.0,-999.0,91,0.00,,,0.00,0,Wunderground v.1.15,2013-01-17 02:30:00,
2013-01-16 18:31:00,32.7,30.4,30.57,NNW,330,0.0,-999.0,91,0.00,,,0.00,0,Wunderground v.1.15,2013-01-17 02:31:00,
2013-01-16 18:32:00,32.8,30.5,30.57,NNW,330,0.0,-999.0,91,0.00,,,0.00,0,Wunderground v.1.15,2013-01-17 02:32:00,
2013-01-16 18:34:00,32.8,30.5,30.57,NNW,330,0.0,-999.0,91,0.00,,,0.00,0,Wunderground v.1.15,2013-01-17 02:34:00,
2013-01-16 18:36:00,32.8,30.5,30.57,NNW,330,0.0,-999.0,91,0.00,,,0.00,0,Wunderground v.1.15,2013-01-17 02:36:00,
2013-01-16 18:37:00,32.8,30.5,30.57,NNW,330,0.0,-999.0,91,0.00,,,0.00,0,Wunderground v.1.15,2013-01-17 02:37:00,
2013-01-16 18:40:00,32.8,30.5,30.57,NNW,330,0.0,-999.0,91,0.00,,,0.00,0,Wunderground v.1.15,2013-01-17 02:40:00,
2013-01-16 18:41:00,32.8,30.5,30.57,NNW,330,0.0,-999.0,91,0.00,,,0.00,0,Wunderground v.1.15,2013-01-17 02:41:00,
2013-01-16 18:42:00,32.8,30.5,30.57,NNW,330,0.0,-999.0,91,0.00,,,0.00,0,Wunderground v.1.15,2013-01-17 02:42:00,
2013-01-16 18:45:00,32.8,30.5,30.57,NNW,330,0.0,-999.0,91,0.00,,,0.00,0,Wunderground v.1.15,2013-01-17 02:45:00,
2013-01-16 18:46:00,32.8,30.5,30.57,NNW,330,0.0,-999.0,91,0.00,,,0.00,0,Wunderground v.1.15,2013-01-17 02:46:00,
2013-01-16 18:47:00,32.8,30.5,30.57,NNW,330,0.0,-999.0,91,0.00,,,0.00,0,Wunderground v.1.15,2013-01-17 02:47:00,
2013-01-16 18:50:00,32.8,30.5,30.57,NNW,330,0.0,-999.0,91,0.00,,,0.00,0,Wunderground v.1.15,2013-01-17 02:50:00,
2013-01-16 18:51:00,32.7,30.4,30.57,NNW,330,0.0,-999.0,91,0.00,,,0.00,0,Wunderground v.1.15,2013-01-17 02:51:00,
2013-01-16 18:52:00,32.7,30.4,30.57,NNW,330,0.0,-999.0,91,0.00,,,0.00,0,Wunderground v.1.15,2013-01-17 02:52:00,
2013-01-16 18:55:00,32.7,30.4,30.57,NW,324,0.0,-999.0,91,0.00,,,0.00,0,Wunderground v.1.15,2013-01-17 02:55:00,
2013-01-16 18:57:00,32.7,30.4,30.57,NNW,330,0.0,-999.0,91,0.00,,,0.00,0,Wunderground v.1.15,2013-01-17 02:57:00,
2013-01-16 18:58:00,32.7,30.4,30.57,NNW,330,0.0,-999.0,91,0.00,,,0.00,0,Wunderground v.1.15,2013-01-17 02:58:00,
2013-01-16 19:01:00,32.5,30.2,30.57,NNW,330,0.0,-999.0,91,0.00,,,0.00,0,Wunderground v.1.15,2013-01-17 03:01:00,
2013-01-16 19:02:00,32.5,30.2,30.57,NNW,330,0.0,-999.0,91,0.00,,,0.00,0,Wunderground v.1.15,2013-01-17 03:02:00,
2013-01-16 19:03:00,32.5,30.2,30.57,NNW,330,0.0,-999.0,91,0.00,,,0.00,0,Wunderground v.1.15,2013-01-17 03:03:00,
2013-01-16 19:06:00,32.5,30.2,30.57,NNW,330,0.0,-999.0,91,0.00,,,0.00,0,Wunderground v.1.15,2013-01-17 03:06:00,
2013-01-16 19:07:00,32.5,30.2,30.57,NNW,330,0.0,-999.0,91,0.00,,,0.00,0,Wunderground v.1.15,2013-01-17 03:07:00,
2013-01-16 19:08:00,32.5,30.2,30.57,NNW,330,0.0,-999.0,91,0.00,,,0.00,0,Wunderground v.1.15,2013-01-17 03:08:00,
2013-01-16 19:11:00,32.5,30.2,30.57,NNW,330,0.0,-999.0,91,0.00,,,0.00,0,Wunderground v.1.15,2013-01-17 03:11:00,
2013-01-16 19:12:00,32.5,30.2,30.57,NNW,330,0.0,-999.0,91,0.00,,,0.00,0,Wunderground v.1.15,2013-01-17 03:12:00,
2013-01-16 19:14:00,32.5,30.2,30.57,NNW,330,0.0,-999.0,91,0.00,,,0.00,0,Wunderground v.1.15,2013-01-17 03:14:00,
2013-01-16 19:16:00,32.4,30.1,30.57,NNW,330,0.0,-999.0,91,0.00,,,0.00,0,Wunderground v.1.15,2013-01-17 03:16:00,
2013-01-16 19:17:00,32.4,30.1,30.57,NNW,330,0.0,-999.0,91,0.00,,,0.00,0,Wunderground v.1.15,2013-01-17 03:17:00,
2013-01-16 19:18:00,32.4,30.1,30.57,NNW,330,0.0,-999.0,91,0.00,,,0.00,0,Wunderground v.1.15,2013-01-17 03:18:00,
2013-01-16 19:19:00,32.4,30.1,30.57,NNW,330,0.0,-999.0,91,0.00,,,0.00,0,Wunderground v.1.15,2013-01-17 03:19:00,
2013-01-16 19:22:00,32.4,30.1,30.57,NNW,330,0.0,-999.0,91,0.00,,,0.00,0,Wunderground v.1.15,2013-01-17 03:22:00,
2013-01-16 19:23:00,32.4,30.1,30.57,NNW,330,0.0,-999.0,91,0.00,,,0.00,0,Wunderground v.1.15,2013-01-17 03:23:00,
2013-01-16 19:25:00,32.2,29.9,30.57,NNW,330,0.0,-999.0,91,0.00,,,0.00,0,Wunderground v.1.15,2013-01-17 03:25:00,
2013-01-16 19:28:00,32.2,29.9,30.57,NNW,330,0.0,-999.0,91,0.00,,,0.00,0,Wunderground v.1.15,2013-01-17 03:28:00,
2013-01-16 19:30:00,32.1,29.8,30.57,NNW,330,0.0,-999.0,91,0.00,,,0.00,0,Wunderground v.1.15,2013-01-17 03:30:00,
2013-01-16 19:33:00,32.1,29.8,30.56,NNW,330,0.0,-999.0,91,0.00,,,0.00,0,Wunderground v.1.15,2013-01-17 03:33:00,
2013-01-16 19:35:00,32.1,29.8,30.56,NNW,330,0.0,-999.0,91,0.00,,,0.00,0,Wunderground v.1.15,2013-01-17 03:35:00,
2013-01-16 19:38:00,31.9,29.6,30.56,NNW,330,0.0,-999.0,91,0.00,,,0.00,0,Wunderground v.1.15,2013-01-17 03:38:00,
2013-01-16 19:40:00,31.9,29.6,30.56,NNW,330,0.0,-999.0,91,0.00,,,0.00,0,Wunderground v.1.15,2013-01-17 03:40:00,
2013-01-16 19:43:00,31.8,29.5,30.56,NNW,330,0.0,-999.0,91,0.00,,,0.00,0,Wunderground v.1.15,2013-01-17 03:43:00,
2013-01-16 19:44:00,31.8,29.5,30.56,NNW,330,0.0,-999.0,91,0.00,,,0.00,0,Wunderground v.1.15,2013-01-17 03:44:00,
2013-01-16 19:46:00,31.8,29.5,30.56,NNW,330,0.0,-999.0,91,0.00,,,0.00,0,Wunderground v.1.15,2013-01-17 03:46:00,
2013-01-16 19:48:00,31.8,-99.9,30.56,NNW,330,0.0,-999.0,255,0.00,,,0.00,0,Wunderground v.1.15,2013-01-17 03:48:00,
2013-01-16 19:49:00,31.8,29.5,30.56,NNW,330,0.0,-999.0,91,0.00,,,0.00,0,Wunderground v.1.15,2013-01-17 03:49:00,
2013-01-16 19:51:00,31.6,29.3,30.56,NNW,330,0.0,-999.0,91,0.00,,,0.00,0,Wunderground v.1.15,2013-01-17 03:51:00,
2013-01-16 19:54:00,31.6,-99.9,30.56,NNW,330,0.0,-999.0,255,0.00,,,0.00,0,Wunderground v.1.15,2013-01-17 03:54:00,
2013-01-16 19:56:00,31.6,-99.9,30.56,NNW,330,0.0,-999.0,255,0.00,,,0.00,0,Wunderground v.1.15,2013-01-17 03:56:00,
2013-01-16 19:59:00,31.6,29.3,30.56,NNW,330,0.0,-999.0,91,0.00,,,0.00,0,Wunderground v.1.15,2013-01-17 03:59:00,
2013-01-16 20:01:00,31.6,29.3,30.56,NNW,330,0.0,-999.0,91,0.00,,,0.00,0,Wunderground v.1.15,2013-01-17 04:01:00,
2013-01-16 20:04:00,31.5,29.2,30.56,NNW,334,0.0,-999.0,91,0.00,,,0.00,0,Wunderground v.1.15,2013-01-17 04:04:00,
2013-01-16 20:05:00,31.5,-99.9,30.56,NNW,330,0.0,-999.0,255,0.00,,,0.00,0,Wunderground v.1.15,2013-01-17 04:05:00,
2013-01-16 20:06:00,31.5,29.2,30.56,NNW,330,0.0,-999.0,91,0.00,,,0.00,0,Wunderground v.1.15,2013-01-17 04:06:00,
2013-01-16 20:09:00,31.5,29.2,30.56,NNW,330,0.0,-999.0,91,0.00,,,0.00,0,Wunderground v.1.15,2013-01-17 04:09:00,
2013-01-16 20:10:00,31.3,-99.9,30.56,NNW,330,0.0,-999.0,255,0.00,,,0.00,0,Wunderground v.1.15,2013-01-17 04:10:00,
2013-01-16 20:11:00,31.3,-99.9,30.56,NNW,330,0.0,-999.0,255,0.00,,,0.00,0,Wunderground v.1.15,2013-01-17 04:11:00,
2013-01-16 20:14:00,31.3,29.0,30.56,NNW,330,0.0,-999.0,91,0.00,,,0.00,0,Wunderground v.1.15,2013-01-17 04:14:00,
2013-01-16 20:15:00,31.3,29.0,30.56,NNW,330,0.0,-999.0,91,0.00,,,0.00,0,Wunderground v.1.15,2013-01-17 04:15:00,
2013-01-16 20:17:00,31.3,29.0,30.56,NNW,330,0.0,-999.0,91,0.00,,,0.00,0,Wunderground v.1.15,2013-01-17 04:17:00,
2013-01-16 20:20:00,31.3,29.0,30.56,NNW,331,0.0,-999.0,91,0.00,,,0.00,0,Wunderground v.1.15,2013-01-17 04:20:00,
2013-01-16 20:21:00,31.3,-99.9,30.56,NNW,330,0.0,-999.0,255,0.00,,,0.00,0,Wunderground v.1.15,2013-01-17 04:21:00,
2013-01-16 20:22:00,31.3,-99.9,30.56,NNW,330,0.0,-999.0,255,0.00,,,0.00,0,Wunderground v.1.15,2013-01-17 04:22:00,
2013-01-16 20:25:00,31.2,28.9,30.56,NNW,333,0.0,-999.0,91,0.00,,,0.00,0,Wunderground v.1.15,2013-01-17 04:25:00,
2013-01-16 20:26:00,31.2,-99.9,30.56,NNW,330,0.0,-999.0,255,0.00,,,0.00,0,Wunderground v.1.15,2013-01-17 04:26:00,
2013-01-16 20:27:00,31.2,-99.9,30.56,NNW,330,0.0,-999.0,255,0.00,,,0.00,0,Wunderground v.1.15,2013-01-17 04:27:00,
2013-01-16 20:30:00,31.2,28.9,30.56,NNW,330,0.0,-999.0,91,0.00,,,0.00,0,Wunderground v.1.15,2013-01-17 04:30:00,
2013-01-16 20:31:00,31.2,28.9,30.56,NNW,333,0.0,-999.0,91,0.00,,,0.00,0,Wunderground v.1.15,2013-01-17 04:31:00,
2013-01-16 20:32:00,31.2,-99.9,30.56,NNW,330,0.0,-999.0,255,0.00,,,0.00,0,Wunderground v.1.15,2013-01-17 04:32:00,
2013-01-16 20:35:00,31.0,28.7,30.56,NNW,331,0.0,-999.0,91,0.00,,,0.00,0,Wunderground v.1.15,2013-01-17 04:35:00,
2013-01-16 20:36:00,31.0,-99.9,30.56,NNW,330,0.0,-999.0,255,0.00,,,0.00,0,Wunderground v.1.15,2013-01-17 04:36:00,
2013-01-16 20:37:00,31.0,-99.9,30.56,NNW,333,0.0,-999.0,255,0.00,,,0.00,0,Wunderground v.1.15,2013-01-17 04:37:00,
2013-01-16 20:40:00,30.9,-99.9,30.56,NNW,330,0.0,-999.0,255,0.00,,,0.00,0,Wunderground v.1.15,2013-01-17 04:40:00,
2013-01-16 20:42:00,30.9,28.6,30.56,NNW,330,0.0,-999.0,91,0.00,,,0.00,0,Wunderground v.1.15,2013-01-17 04:42:00,
2013-01-16 20:43:00,30.9,28.6,30.56,NNW,330,0.0,-999.0,91,0.00,,,0.00,0,Wunderground v.1.15,2013-01-17 04:43:00,
2013-01-16 20:45:00,30.9,-99.9,30.45,NNW,330,0.0,-999.0,255,0.00,,,0.00,0,Wunderground v.1.15,2013-01-17 04:45:00,
2013-01-16 20:47:00,30.7,-99.9,30.45,NNW,327,0.0,-999.0,255,0.00,,,0.00,0,Wunderground v.1.15,2013-01-17 04:47:00,
2013-01-16 20:48:00,30.7,-99.9,30.45,NNW,330,0.0,-999.0,255,0.00,,,0.00,0,Wunderground v.1.15,2013-01-17 04:48:00,
2013-01-16 20:51:00,30.7,-99.9,30.45,NNW,330,0.0,-999.0,255,0.00,,,0.00,0,Wunderground v.1.15,2013-01-17 04:51:00,
2013-01-16 20:52:00,30.7,-99.9,30.45,NNW,333,0.0,-999.0,255,0.00,,,0.00,0,Wunderground v.1.15,2013-01-17 04:52:00,
2013-01-16 20:53:00,30.7,-99.9,30.45,NNW,330,0.0,-999.0,255,0.00,,,0.00,0,Wunderground v.1.15,2013-01-17 04:53:00,
2013-01-16 20:56:00,30.7,28.4,30.45,NW,324,0.0,-999.0,91,0.00,,,0.00,0,Wunderground v.1.15,2013-01-17 04:56:00,
2013-01-16 20:57:00,30.7,28.4,30.45,NNW,330,0.0,-999.0,91,0.00,,,0.00,0,Wunderground v.1.15,2013-01-17 04:57:00,
2013-01-16 20:58:00,30.7,28.4,30.45,NNW,330,0.0,-999.0,91,0.00,,,0.00,0,Wunderground v.1.15,2013-01-17 04:58:00,
2013-01-16 20:59:00,30.7,28.4,30.45,NNW,330,0.0,-999.0,91,0.00,,,0.00,0,Wunderground v.1.15,2013-01-17 04:59:00,
2013-01-16 21:00:00,30.7,28.4,30.45,NNW,331,0.0,-999.0,91,0.00,,,0.00,0,Wunderground v.1.15,2013-01-17 05:00:00,
2013-01-16 21:02:00,30.6,28.3,30.54,NNW,330,0.0,-999.0,91,0.00,,,0.00,0,Wunderground v.1.15,2013-01-17 05:02:00,
2013-01-16 21:03:00,30.6,28.3,30.54,NNW,330,0.0,-999.0,91,0.00,,,0.00,0,Wunderground v.1.15,2013-01-17 05:03:00,
2013-01-16 21:04:00,30.6,28.3,30.54,NNW,331,0.0,-999.0,91,0.00,,,0.00,0,Wunderground v.1.15,2013-01-17 05:04:00,
2013-01-16 21:06:00,30.6,28.3,30.54,NNW,330,0.0,-999.0,91,0.00,,,0.00,0,Wunderground v.1.15,2013-01-17 05:06:00,
2013-01-16 21:07:00,30.6,28.3,30.54,NNW,330,0.0,-999.0,91,0.00,,,0.00,0,Wunderground v.1.15,2013-01-17 05:07:00,
2013-01-16 21:09:00,30.6,28.3,30.54,NNW,330,0.0,-999.0,91,0.00,,,0.00,0,Wunderground v.1.15,2013-01-17 05:09:00,
2013-01-16 21:11:00,30.6,28.3,30.54,NNW,330,0.0,-999.0,91,0.00,,,0.00,0,Wunderground v.1.15,2013-01-17 05:11:00,
2013-01-16 21:12:00,30.6,28.3,30.54,NNW,330,0.0,-999.0,91,0.00,,,0.00,0,Wunderground v.1.15,2013-01-17 05:12:00,
2013-01-16 21:14:00,30.6,28.3,30.54,NNW,330,0.0,-999.0,91,0.00,,,0.00,0,Wunderground v.1.15,2013-01-17 05:14:00,
2013-01-16 21:16:00,30.6,28.3,30.55,NNW,330,0.0,-999.0,91,0.00,,,0.00,0,Wunderground v.1.15,2013-01-17 05:16:00,
2013-01-16 21:18:00,30.6,28.3,30.55,NNW,331,0.0,-999.0,91,0.00,,,0.00,0,Wunderground v.1.15,2013-01-17 05:18:00,
2013-01-16 21:19:00,30.6,28.3,30.55,NNW,330,0.0,-999.0,91,0.00,,,0.00,0,Wunderground v.1.15,2013-01-17 05:19:00,
2013-01-16 21:21:00,30.6,28.3,30.55,NNW,331,0.0,-999.0,91,0.00,,,0.00,0,Wunderground v.1.15,2013-01-17 05:21:00,
2013-01-16 21:23:00,30.6,28.3,30.55,NNW,330,0.0,-999.0,91,0.00,,,0.00,0,Wunderground v.1.15,2013-01-17 05:23:00,
2013-01-16 21:24:00,30.6,28.3,30.55,NNW,330,0.0,-999.0,91,0.00,,,0.00,0,Wunderground v.1.15,2013-01-17 05:24:00,
2013-01-16 21:26:00,30.6,28.3,30.55,NNW,330,0.0,-999.0,91,0.00,,,0.00,0,Wunderground v.1.15,2013-01-17 05:26:00,
2013-01-16 21:28:00,30.6,28.3,30.55,NNW,330,0.0,-999.0,91,0.00,,,0.00,0,Wunderground v.1.15,2013-01-17 05:28:00,
2013-01-16 21:29:00,30.6,28.3,30.55,NNW,330,0.0,-999.0,91,0.00,,,0.00,0,Wunderground v.1.15,2013-01-17 05:29:00,
2013-01-16 21:30:00,30.6,28.3,30.55,NNW,330,0.0,-999.0,91,0.00,,,0.00,0,Wunderground v.1.15,2013-01-17 05:30:00,
2013-01-16 21:32:00,30.6,28.3,30.55,NNW,330,0.0,-999.0,91,0.00,,,0.00,0,Wunderground v.1.15,2013-01-17 05:32:00,
2013-01-16 21:33:00,30.6,28.3,30.55,NNW,330,0.0,-999.0,91,0.00,,,0.00,0,Wunderground v.1.15,2013-01-17 05:33:00,
2013-01-16 21:35:00,30.6,28.3,30.55,NNW,330,0.0,-999.0,91,0.00,,,0.00,0,Wunderground v.1.15,2013-01-17 05:35:00,
2013-01-16 21:36:00,30.6,28.3,30.55,NNW,330,0.0,-999.0,91,0.00,,,0.00,0,Wunderground v.1.15,2013-01-17 05:36:00,
2013-01-16 21:37:00,30.4,28.1,30.55,NNW,330,0.0,-999.0,91,0.00,,,0.00,0,Wunderground v.1.15,2013-01-17 05:37:00,
2013-01-16 21:38:00,30.4,28.1,30.55,NNW,330,0.0,-999.0,91,0.00,,,0.00,0,Wunderground v.1.15,2013-01-17 05:38:00,
2013-01-16 21:40:00,30.4,28.1,30.55,NNW,331,0.0,-999.0,91,0.00,,,0.00,0,Wunderground v.1.15,2013-01-17 05:40:00,
2013-01-16 21:41:00,30.4,28.1,30.55,NNW,330,0.0,-999.0,91,0.00,,,0.00,0,Wunderground v.1.15,2013-01-17 05:41:00,
2013-01-16 21:42:00,30.4,28.1,30.55,NNW,330,0.0,-999.0,91,0.00,,,0.00,0,Wunderground v.1.15,2013-01-17 05:42:00,
2013-01-16 21:43:00,30.4,28.1,30.55,NNW,330,0.0,-999.0,91,0.00,,,0.00,0,Wunderground v.1.15,2013-01-17 05:43:00,
2013-01-16 21:45:00,30.4,28.1,30.55,NNW,331,0.0,-999.0,91,0.00,,,0.00,0,Wunderground v.1.15,2013-01-17 05:45:00,
2013-01-16 21:47:00,30.4,28.1,30.55,NNW,330,0.0,-999.0,91,0.00,,,0.00,0,Wunderground v.1.15,2013-01-17 05:47:00,
2013-01-16 21:49:00,30.4,28.1,30.55,NNW,330,0.0,-999.0,91,0.00,,,0.00,0,Wunderground v.1.15,2013-01-17 05:49:00,
2013-01-16 21:50:00,30.4,28.1,30.55,NNW,330,0.0,-999.0,91,0.00,,,0.00,0,Wunderground v.1.15,2013-01-17 05:50:00,
2013-01-16 21:52:00,30.4,28.1,30.55,NNW,330,0.0,-999.0,91,0.00,,,0.00,0,Wunderground v.1.15,2013-01-17 05:52:00,
2013-01-16 21:54:00,30.3,28.0,30.55,NNW,330,0.0,-999.0,91,0.00,,,0.00,0,Wunderground v.1.15,2013-01-17 05:54:00,
2013-01-16 21:56:00,30.3,28.0,30.55,NNW,330,0.0,-999.0,91,0.00,,,0.00,0,Wunderground v.1.15,2013-01-17 05:56:00,
2013-01-16 21:57:00,30.3,28.0,30.55,NNW,331,0.0,-999.0,91,0.00,,,0.00,0,Wunderground v.1.15,2013-01-17 05:57:00,
2013-01-16 21:59:00,30.3,-99.9,30.55,NNW,330,0.0,-999.0,255,0.00,,,0.00,0,Wunderground v.1.15,2013-01-17 05:59:00,
2013-01-16 22:01:00,30.3,28.0,30.54,NNW,330,0.0,-999.0,91,0.00,,,0.00,0,Wunderground v.1.15,2013-01-17 06:01:00,
2013-01-16 22:02:00,30.3,28.0,30.54,NNW,330,0.0,-999.0,91,0.00,,,0.00,0,Wunderground v.1.15,2013-01-17 06:02:00,
2013-01-16 22:03:00,30.3,28.0,30.54,NNW,330,0.0,-999.0,91,0.00,,,0.00,0,Wunderground v.1.15,2013-01-17 06:03:00,
2013-01-16 22:04:00,30.1,27.8,30.54,NNW,330,0.0,-999.0,91,0.00,,,0.00,0,Wunderground v.1.15,2013-01-17 06:04:00,
2013-01-16 22:06:00,30.1,27.8,30.54,NNW,331,0.0,-999.0,91,0.00,,,0.00,0,Wunderground v.1.15,2013-01-17 06:06:00,
2013-01-16 22:08:00,30.1,-99.9,30.54,NNW,330,0.0,-999.0,255,0.00,,,0.00,0,Wunderground v.1.15,2013-01-17 06:08:00,
2013-01-16 22:10:00,30.1,27.8,30.54,NNW,334,0.0,-999.0,91,0.00,,,0.00,0,Wunderground v.1.15,2013-01-17 06:10:00,
2013-01-16 22:11:00,30.1,-99.9,30.54,NNW,330,0.0,-999.0,255,0.00,,,0.00,0,Wunderground v.1.15,2013-01-17 06:11:00,
2013-01-16 22:13:00,30.1,27.8,30.54,NNW,330,0.0,-999.0,91,0.00,,,0.00,0,Wunderground v.1.15,2013-01-17 06:13:00,
2013-01-16 22:15:00,30.1,27.8,30.54,NNW,330,0.0,-999.0,91,0.00,,,0.00,0,Wunderground v.1.15,2013-01-17 06:15:00,
2013-01-16 22:16:00,30.1,27.8,30.55,NNW,330,0.0,-999.0,91,0.00,,,0.00,0,Wunderground v.1.15,2013-01-17 06:16:00,
2013-01-16 22:18:00,30.1,27.8,30.55,NNW,330,0.0,-999.0,91,0.00,,,0.00,0,Wunderground v.1.15,2013-01-17 06:18:00,
2013-01-16 22:19:00,30.1,27.8,30.55,NNW,330,0.0,-999.0,91,0.00,,,0.00,0,Wunderground v.1.15,2013-01-17 06:19:00,
2013-01-16 22:20:00,30.1,27.8,30.55,NNW,330,0.0,-999.0,91,0.00,,,0.00,0,Wunderground v.1.15,2013-01-17 06:20:00,
2013-01-16 22:21:00,30.1,27.8,30.55,NNW,327,0.0,-999.0,91,0.00,,,0.00,0,Wunderground v.1.15,2013-01-17 06:21:00,
2013-01-16 22:24:00,30.1,-99.9,30.55,NNW,330,0.0,-999.0,255,0.00,,,0.00,0,Wunderground v.1.15,2013-01-17 06:24:00,
2013-01-16 22:25:00,30.1,27.8,30.55,NNW,334,0.0,-999.0,91,0.00,,,0.00,0,Wunderground v.1.15,2013-01-17 06:25:00,
2013-01-16 22:26:00,30.1,-99.9,30.55,NNW,330,0.0,-999.0,255,0.00,,,0.00,0,Wunderground v.1.15,2013-01-17 06:26:00,
2013-01-16 22:29:00,30.0,27.7,30.55,NNW,330,0.0,-999.0,91,0.00,,,0.00,0,Wunderground v.1.15,2013-01-17 06:29:00,
2013-01-16 22:31:00,30.0,27.7,30.55,NNW,330,0.0,-999.0,91,0.00,,,0.00,0,Wunderground v.1.15,2013-01-17 06:31:00,
2013-01-16 22:34:00,30.0,27.7,30.55,NNW,330,0.0,-999.0,91,0.00,,,0.00,0,Wunderground v.1.15,2013-01-17 06:34:00,
2013-01-16 22:36:00,29.9,27.6,30.55,NNW,330,0.0,-999.0,91,0.00,,,0.00,0,Wunderground v.1.15,2013-01-17 06:36:00,
2013-01-16 22:37:00,29.9,27.6,30.55,NNW,330,0.0,-999.0,91,0.00,,,0.00,0,Wunderground v.1.15,2013-01-17 06:37:00,
2013-01-16 22:39:00,29.9,27.6,30.55,NNW,330,0.0,-999.0,91,0.00,,,0.00,0,Wunderground v.1.15,2013-01-17 06:39:00,
2013-01-16 22:40:00,29.9,27.6,30.55,NNW,330,0.0,-999.0,91,0.00,,,0.00,0,Wunderground v.1.15,2013-01-17 06:40:00,
2013-01-16 22:42:00,29.9,27.6,30.55,NNW,330,0.0,-999.0,91,0.00,,,0.00,0,Wunderground v.1.15,2013-01-17 06:42:00,
2013-01-16 22:44:00,29.7,27.4,30.55,NNW,330,0.0,-999.0,91,0.00,,,0.00,0,Wunderground v.1.15,2013-01-17 06:44:00,
2013-01-16 22:45:00,29.7,27.4,30.55,NNW,330,0.0,-999.0,91,0.00,,,0.00,0,Wunderground v.1.15,2013-01-17 06:45:00,
2013-01-16 22:47:00,29.7,27.4,30.55,NNW,330,0.0,-999.0,91,0.00,,,0.00,0,Wunderground v.1.15,2013-01-17 06:47:00,
2013-01-16 22:49:00,29.7,27.4,30.55,NNW,330,0.0,-999.0,91,0.00,,,0.00,0,Wunderground v.1.15,2013-01-17 06:49:00,
2013-01-16 22:50:00,29.7,27.4,30.55,NNW,330,0.0,-999.0,91,0.00,,,0.00,0,Wunderground v.1.15,2013-01-17 06:50:00,
2013-01-16 22:52:00,29.7,27.4,30.55,NNW,330,0.0,-999.0,91,0.00,,,0.00,0,Wunderground v.1.15,2013-01-17 06:52:00,
2013-01-16 22:55:00,29.7,27.4,30.55,NNW,330,0.0,-999.0,91,0.00,,,0.00,0,Wunderground v.1.15,2013-01-17 06:55:00,
2013-01-16 22:57:00,29.7,27.4,30.55,NNW,330,0.0,-999.0,91,0.00,,,0.00,0,Wunderground v.1.15,2013-01-17 06:57:00,
2013-01-16 22:58:00,29.7,27.4,30.55,NNW,330,0.0,-999.0,91,0.00,,,0.00,0,Wunderground v.1.15,2013-01-17 06:58:00,
2013-01-16 23:00:00,29.7,27.4,30.55,NNW,330,0.0,-999.0,91,0.00,,,0.00,0,Wunderground v.1.15,2013-01-17 07:00:00,
2013-01-16 23:03:00,29.7,27.4,30.54,NNW,330,0.0,-999.0,91,0.00,,,0.00,0,Wunderground v.1.15,2013-01-17 07:03:00,
2013-01-16 23:05:00,29.6,27.3,30.54,NNW,330,0.0,-999.0,91,0.00,,,0.00,0,Wunderground v.1.15,2013-01-17 07:05:00,
2013-01-16 23:06:00,29.6,27.3,30.54,NNW,330,0.0,-999.0,91,0.00,,,0.00,0,Wunderground v.1.15,2013-01-17 07:06:00,
2013-01-16 23:08:00,29.6,27.3,30.54,NNW,330,0.0,-999.0,91,0.00,,,0.00,0,Wunderground v.1.15,2013-01-17 07:08:00,
2013-01-16 23:10:00,29.6,27.3,30.54,NNW,330,0.0,-999.0,91,0.00,,,0.00,0,Wunderground v.1.15,2013-01-17 07:10:00,
2013-01-16 23:11:00,29.6,27.3,30.54,NNW,330,0.0,-999.0,91,0.00,,,0.00,0,Wunderground v.1.15,2013-01-17 07:11:00,
2013-01-16 23:14:00,29.6,27.3,30.54,NNW,330,0.0,-999.0,91,0.00,,,0.00,0,Wunderground v.1.15,2013-01-17 07:14:00,
2013-01-16 23:15:00,29.6,27.3,30.54,NNW,330,0.0,-999.0,91,0.00,,,0.00,0,Wunderground v.1.15,2013-01-17 07:15:00,
2013-01-16 23:17:00,29.6,27.3,30.54,NNW,330,0.0,-999.0,91,0.00,,,0.00,0,Wunderground v.1.15,2013-01-17 07:17:00,
2013-01-16 23:19:00,29.4,27.1,30.54,NNW,331,0.0,-999.0,91,0.00,,,0.00,0,Wunderground v.1.15,2013-01-17 07:19:00,
2013-01-16 23:20:00,29.4,27.1,30.54,NNW,330,0.0,-999.0,91,0.00,,,0.00,0,Wunderground v.1.15,2013-01-17 07:20:00,
2013-01-16 23:22:00,29.4,27.1,30.54,NNW,330,0.0,-999.0,91,0.00,,,0.00,0,Wunderground v.1.15,2013-01-17 07:22:00,
2013-01-16 23:24:00,29.4,27.1,30.54,NNW,330,0.0,-999.0,91,0.00,,,0.00,0,Wunderground v.1.15,2013-01-17 07:24:00,
2013-01-16 23:25:00,29.4,27.1,30.54,NNW,330,0.0,-999.0,91,0.00,,,0.00,0,Wunderground v.1.15,2013-01-17 07:25:00,
2013-01-16 23:26:00,29.4,27.1,30.54,NNW,330,0.0,-999.0,91,0.00,,,0.00,0,Wunderground v.1.15,2013-01-17 07:26:00,
2013-01-16 23:28:00,29.4,27.1,30.54,NNW,330,0.0,-999.0,91,0.00,,,0.00,0,Wunderground v.1.15,2013-01-17 07:28:00,
2013-01-16 23:29:00,29.4,27.1,30.54,NNW,330,0.0,-999.0,91,0.00,,,0.00,0,Wunderground v.1.15,2013-01-17 07:29:00,
2013-01-16 23:30:00,29.4,27.1,30.54,NW,324,0.0,-999.0,91,0.00,,,0.00,0,Wunderground v.1.15,2013-01-17 07:30:00,
2013-01-16 23:31:00,29.4,27.1,30.54,NNW,330,0.0,-999.0,91,0.00,,,0.00,0,Wunderground v.1.15,2013-01-17 07:31:00,
2013-01-16 23:33:00,29.4,27.1,30.54,NNW,330,0.0,-999.0,91,0.00,,,0.00,0,Wunderground v.1.15,2013-01-17 07:33:00,
2013-01-16 23:35:00,29.4,27.1,30.54,NNW,330,0.0,-999.0,91,0.00,,,0.00,0,Wunderground v.1.15,2013-01-17 07:35:00,
2013-01-16 23:36:00,29.4,27.1,30.54,NNW,331,0.0,-999.0,91,0.00,,,0.00,0,Wunderground v.1.15,2013-01-17 07:36:00,
2013-01-16 23:38:00,29.4,27.1,30.54,NNW,330,0.0,-999.0,91,0.00,,,0.00,0,Wunderground v.1.15,2013-01-17 07:38:00,
2013-01-16 23:40:00,29.4,27.1,30.54,NNW,330,0.0,-999.0,91,0.00,,,0.00,0,Wunderground v.1.15,2013-01-17 07:40:00,
2013-01-16 23:41:00,29.4,27.1,30.54,NNW,330,0.0,-999.0,91,0.00,,,0.00,0,Wunderground v.1.15,2013-01-17 07:41:00,
2013-01-16 23:44:00,29.4,27.1,30.54,NNW,330,0.0,-999.0,91,0.00,,,0.00,0,Wunderground v.1.15,2013-01-17 07:44:00,
2013-01-16 23:45:00,29.4,27.1,30.55,NNW,330,0.0,-999.0,91,0.00,,,0.00,0,Wunderground v.1.15,2013-01-17 07:45:00,
2013-01-16 23:46:00,29.4,27.1,30.55,NNW,330,0.0,-999.0,91,0.00,,,0.00,0,Wunderground v.1.15,2013-01-17 07:46:00,
2013-01-16 23:47:00,29.4,27.1,30.55,NNW,330,0.0,-999.0,91,0.00,,,0.00,0,Wunderground v.1.15,2013-01-17 07:47:00,
2013-01-16 23:49:00,29.4,27.1,30.55,NNW,330,0.0,-999.0,91,0.00,,,0.00,0,Wunderground v.1.15,2013-01-17 07:49:00,
2013-01-16 23:51:00,29.4,27.1,30.55,NNW,330,0.0,-999.0,91,0.00,,,0.00,0,Wunderground v.1.15,2013-01-17 07:51:00,
2013-01-16 23:52:00,29.4,27.1,30.55,NNW,330,0.0,-999.0,91,0.00,,,0.00,0,Wunderground v.1.15,2013-01-17 07:52:00,
2013-01-16 23:54:00,29.4,27.1,30.55,NNW,330,0.0,-999.0,91,0.00,,,0.00,0,Wunderground v.1.15,2013-01-17 07:54:00,
2013-01-16 23:56:00,29.4,27.1,30.55,NNW,330,0.0,-999.0,91,0.00,,,0.00,0,Wunderground v.1.15,2013-01-17 07:56:00,
2013-01-16 23:57:00,29.6,27.3,30.55,NNW,330,0.0,-999.0,91,0.00,,,0.00,0,Wunderground v.1.15,2013-01-17 07:57:00,
2013-01-16 23:59:00,29.6,27.3,30.55,NNW,331,0.0,-999.0,91,0.00,,,0.00,0,Wunderground v.1.15,2013-01-17 07:59:00,